| time (UTC) | temp C | wind direction | speed KPH | gust KPH | rain 1hr cm | rain 24hr cm | rain mn cm | humidity % | barometer mb |
| 20260905202129 | 32 | 237 | 4.8 | 16.1 | 0.00 | 0.15 | 0.00 | 67 | 1010.0 |
| 20260905202028 | 32 | 162 | 4.8 | 16.1 | 0.00 | 0.15 | 0.00 | 67 | 1010.0 |
| 20260905201927 | 32 | 171 | 3.2 | 16.1 | 0.00 | 0.15 | 0.00 | 67 | 1010.0 |
| 20260905201829 | 32 | 169 | 4.8 | 16.1 | 0.00 | 0.15 | 0.00 | 67 | 1009.9 |
| 20260905201728 | 32 | 199 | 8.0 | 16.1 | 0.00 | 0.15 | 0.00 | 67 | 1010.0 |
| 20260905201628 | 32 | 111 | 9.7 | 16.1 | 0.00 | 0.15 | 0.00 | 67 | 1010.0 |
| 20260905201527 | 32 | 111 | 9.7 | 16.1 | 0.00 | 0.15 | 0.00 | 67 | 1009.9 |
| 20260905201427 | 32 | 66 | 9.7 | 16.1 | 0.00 | 0.15 | 0.00 | 67 | 1009.9 |
| 20260905201326 | 32 | 117 | 9.7 | 16.1 | 0.00 | 0.15 | 0.00 | 67 | 1010.0 |
| 20260905201225 | 32 | 107 | 9.7 | 16.1 | 0.00 | 0.15 | 0.00 | 67 | 1009.9 |
| 20260905201123 | 32 | 113 | 9.7 | 17.7 | 0.00 | 0.15 | 0.00 | 67 | 1009.9 |
| 20260905201022 | 32 | 109 | 8.0 | 17.7 | 0.00 | 0.15 | 0.00 | 68 | 1009.9 |
| 20260905200920 | 32 | 94 | 6.4 | 17.7 | 0.00 | 0.15 | 0.00 | 68 | 1009.9 |
| 20260905200818 | 32 | 102 | 6.4 | 17.7 | 0.00 | 0.15 | 0.00 | 68 | 1009.9 |
| 20260905200717 | 32 | 86 | 4.8 | 17.7 | 0.00 | 0.15 | 0.00 | 67 | 1009.9 |
| 20260905200614 | 32 | 165 | 6.4 | 17.7 | 0.00 | 0.15 | 0.00 | 67 | 1009.9 |
| 20260905200513 | 32 | 120 | 6.4 | 17.7 | 0.00 | 0.15 | 0.00 | 68 | 1009.9 |
| 20260905200412 | 32 | 179 | 8.0 | 17.7 | 0.00 | 0.15 | 0.00 | 68 | 1010.0 |
| 20260905200311 | 32 | 90 | 9.7 | 17.7 | 0.00 | 0.15 | 0.00 | 68 | 1010.0 |
| 20260905200209 | 32 | 99 | 9.7 | 17.7 | 0.00 | 0.15 | 0.00 | 67 | 1010.0 |
| 20260905200107 | 32 | 110 | 9.7 | 17.7 | 0.00 | 0.15 | 0.00 | 67 | 1010.0 |
| 20260905200006 | 32 | 121 | 9.7 | 17.7 | 0.00 | 0.15 | 0.00 | 67 | 1010.0 |
| 20260905195903 | 32 | 113 | 9.7 | 16.1 | 0.00 | 0.15 | 0.00 | 67 | 1010.0 |
| 20260905195804 | 33 | 85 | 9.7 | 16.1 | 0.00 | 0.15 | 0.00 | 67 | 1010.0 |
| 20260905195702 | 33 | 96 | 9.7 | 16.1 | 0.00 | 0.15 | 0.00 | 66 | 1010.0 |
| 20260905195602 | 33 | 92 | 12.9 | 16.1 | 0.00 | 0.15 | 0.00 | 66 | 1010.0 |
| 20260905195503 | 33 | 93 | 4.8 | 11.3 | 0.00 | 0.15 | 0.00 | 64 | 1010.0 |
| 20260905195404 | 33 | 93 | 4.8 | 11.3 | 0.00 | 0.15 | 0.00 | 64 | 1010.0 |
| 20260905195306 | 33 | 106 | 3.2 | 11.3 | 0.00 | 0.15 | 0.00 | 64 | 1010.0 |
| 20260905195203 | 33 | 86 | 4.8 | 11.3 | 0.00 | 0.15 | 0.00 | 64 | 1009.9 |
| 20260905195104 | 33 | 85 | 4.8 | 11.3 | 0.00 | 0.15 | 0.00 | 63 | 1009.9 |
| 20260905195002 | 33 | 86 | 8.0 | 11.3 | 0.00 | 0.15 | 0.00 | 63 | 1010.0 |
| 20260905194903 | 33 | 100 | 6.4 | 11.3 | 0.00 | 0.15 | 0.00 | 63 | 1009.9 |
| 20260905194804 | 33 | 63 | 3.2 | 11.3 | 0.00 | 0.15 | 0.00 | 63 | 1009.9 |
| 20260905194702 | 33 | 224 | 3.2 | 11.3 | 0.00 | 0.15 | 0.00 | 64 | 1010.0 |
| 20260905194603 | 33 | 224 | 3.2 | 11.3 | 0.00 | 0.15 | 0.00 | 63 | 1010.0 |
| 20260905194503 | 33 | 166 | 4.8 | 11.3 | 0.00 | 0.15 | 0.00 | 64 | 1010.0 |
| 20260905194402 | 33 | 168 | 4.8 | 17.7 | 0.00 | 0.15 | 0.00 | 64 | 1010.0 |
| 20260905194302 | 33 | 124 | 6.4 | 17.7 | 0.00 | 0.15 | 0.00 | 63 | 1010.0 |
| 20260905194202 | 33 | 121 | 8.0 | 17.7 | 0.00 | 0.15 | 0.00 | 64 | 1010.0 |
| 20260905194103 | 33 | 100 | 4.8 | 17.7 | 0.00 | 0.15 | 0.00 | 63 | 1010.0 |
| 20260905194003 | 33 | 117 | 4.8 | 17.7 | 0.00 | 0.15 | 0.00 | 64 | 1010.0 |
| 20260905193903 | 33 | 179 | 8.0 | 17.7 | 0.00 | 0.15 | 0.00 | 64 | 1010.0 |
| 20260905193802 | 33 | 188 | 6.4 | 17.7 | 0.00 | 0.15 | 0.00 | 64 | 1010.0 |
| 20260905193703 | 33 | 158 | 4.8 | 17.7 | 0.00 | 0.15 | 0.00 | 64 | 1010.0 |
| 20260905193602 | 33 | 127 | 8.0 | 17.7 | 0.00 | 0.15 | 0.00 | 64 | 1010.1 |
| 20260905193505 | 33 | 100 | 9.7 | 17.7 | 0.00 | 0.15 | 0.00 | 64 | 1010.1 |
| 20260905193403 | 33 | 131 | 9.7 | 17.7 | 0.00 | 0.15 | 0.00 | 64 | 1010.0 |
| 20260905193303 | 33 | 104 | 12.9 | 20.9 | 0.00 | 0.15 | 0.00 | 63 | 1010.1 |
| 20260905193202 | 33 | 99 | 9.7 | 20.9 | 0.00 | 0.15 | 0.00 | 63 | 1010.0 |
| 20260905193103 | 34 | 121 | 6.4 | 20.9 | 0.00 | 0.15 | 0.00 | 63 | 1010.0 |
| 20260905193004 | 34 | 178 | 6.4 | 20.9 | 0.00 | 0.15 | 0.00 | 63 | 1009.9 |
| 20260905192903 | 34 | 148 | 4.8 | 20.9 | 0.00 | 0.15 | 0.00 | 63 | 1010.0 |
| 20260905192803 | 34 | 94 | 4.8 | 20.9 | 0.00 | 0.15 | 0.00 | 64 | 1010.0 |
| 20260905192703 | 33 | 116 | 4.8 | 20.9 | 0.00 | 0.15 | 0.00 | 63 | 1010.0 |
| 20260905192602 | 33 | 78 | 3.2 | 20.9 | 0.00 | 0.15 | 0.00 | 64 | 1010.0 |
| 20260905192502 | 33 | 72 | 8.0 | 20.9 | 0.00 | 0.15 | 0.00 | 63 | 1010.1 |
| 20260905192404 | 33 | 72 | 12.9 | 20.9 | 0.00 | 0.15 | 0.00 | 64 | 1010.2 |
| 20260905192306 | 33 | 92 | 9.7 | 17.7 | 0.00 | 0.15 | 0.00 | 65 | 1010.1 |
| 20260905192202 | 33 | 92 | 6.4 | 14.5 | 0.00 | 0.15 | 0.00 | 65 | 1010.2 |
| 20260905192102 | 33 | 140 | 6.4 | 14.5 | 0.00 | 0.15 | 0.00 | 65 | 1010.2 |
| 20260905192005 | 33 | 92 | 6.4 | 9.7 | 0.00 | 0.15 | 0.00 | 65 | 1010.3 |
| 20260905191902 | 33 | 154 | 6.4 | 11.3 | 0.00 | 0.15 | 0.00 | 65 | 1010.3 |
| 20260905191803 | 33 | 196 | 6.4 | 20.9 | 0.00 | 0.15 | 0.00 | 64 | 1010.3 |
| 20260905191703 | 33 | 116 | 6.4 | 20.9 | 0.00 | 0.15 | 0.00 | 65 | 1010.3 |
| 20260905191602 | 33 | 118 | 4.8 | 20.9 | 0.00 | 0.15 | 0.00 | 64 | 1010.3 |
| 20260905191502 | 33 | 113 | 4.8 | 20.9 | 0.00 | 0.15 | 0.00 | 66 | 1010.3 |
| 20260905191403 | 33 | 94 | 4.8 | 20.9 | 0.00 | 0.15 | 0.00 | 66 | 1010.3 |
| 20260905191302 | 33 | 121 | 4.8 | 20.9 | 0.00 | 0.15 | 0.00 | 66 | 1010.3 |
| 20260905191203 | 33 | 87 | 4.8 | 20.9 | 0.00 | 0.15 | 0.00 | 65 | 1010.4 |
| 20260905191103 | 33 | 155 | 6.4 | 20.9 | 0.00 | 0.15 | 0.00 | 65 | 1010.3 |
| 20260905191005 | 33 | 202 | 9.7 | 20.9 | 0.00 | 0.15 | 0.00 | 64 | 1010.4 |
| 20260905190903 | 33 | 209 | 9.7 | 20.9 | 0.00 | 0.15 | 0.00 | 64 | 1010.3 |
| 20260905190802 | 33 | 220 | 9.7 | 20.9 | 0.00 | 0.15 | 0.00 | 65 | 1010.3 |
| 20260905190703 | 33 | 120 | 9.7 | 17.7 | 0.00 | 0.15 | 0.00 | 65 | 1010.3 |
| 20260905190602 | 34 | 103 | 9.7 | 17.7 | 0.00 | 0.15 | 0.00 | 63 | 1010.4 |
| 20260905190502 | 34 | 96 | 9.7 | 17.7 | 0.00 | 0.15 | 0.00 | 63 | 1010.4 |
| 20260905190403 | 35 | 94 | 6.4 | 19.3 | 0.00 | 0.15 | 0.00 | 63 | 1010.4 |
| 20260905190302 | 35 | 138 | 8.0 | 20.9 | 0.00 | 0.15 | 0.00 | 62 | 1010.4 |
| 20260905190202 | 35 | 173 | 8.0 | 20.9 | 0.00 | 0.15 | 0.00 | 63 | 1010.5 |
| 20260905190005 | 35 | 175 | 8.0 | 20.9 | 0.00 | 0.15 | 0.00 | 64 | 1010.4 |
| 20260905185903 | 34 | 282 | 4.8 | 20.9 | 0.00 | 0.15 | 0.00 | 63 | 1010.5 |
| 20260905185803 | 34 | 16 | 3.2 | 20.9 | 0.00 | 0.15 | 0.00 | 63 | 1010.5 |
| 20260905185702 | 34 | 72 | 6.4 | 20.9 | 0.00 | 0.15 | 0.00 | 63 | 1010.5 |
| 20260905185602 | 34 | 71 | 9.7 | 20.9 | 0.00 | 0.15 | 0.00 | 62 | 1010.5 |
| 20260905185503 | 34 | 82 | 12.9 | 20.9 | 0.00 | 0.15 | 0.00 | 61 | 1010.5 |
| 20260905185403 | 35 | 85 | 9.7 | 20.9 | 0.00 | 0.15 | 0.00 | 61 | 1010.5 |
| 20260905185305 | 35 | 72 | 6.4 | 16.1 | 0.00 | 0.15 | 0.00 | 59 | 1010.6 |
| 20260905185203 | 35 | 120 | 4.8 | 16.1 | 0.00 | 0.15 | 0.00 | 58 | 1010.6 |
| 20260905185103 | 35 | 127 | 6.4 | 16.1 | 0.00 | 0.15 | 0.00 | 58 | 1010.7 |
| 20260905185003 | 35 | 118 | 6.4 | 16.1 | 0.00 | 0.15 | 0.00 | 59 | 1010.5 |
| 20260905184903 | 35 | 107 | 4.8 | 16.1 | 0.00 | 0.15 | 0.00 | 58 | 1010.5 |
| 20260905184802 | 35 | 110 | 3.2 | 16.1 | 0.00 | 0.15 | 0.00 | 58 | 1010.6 |
| 20260905184702 | 35 | 234 | 6.4 | 16.1 | 0.00 | 0.15 | 0.00 | 58 | 1010.5 |
| 20260905184603 | 35 | 63 | 6.4 | 16.1 | 0.00 | 0.15 | 0.00 | 58 | 1010.6 |
| 20260905184502 | 35 | 80 | 6.4 | 9.7 | 0.00 | 0.15 | 0.00 | 58 | 1010.7 |
| 20260905184403 | 35 | 97 | 4.8 | 9.7 | 0.00 | 0.15 | 0.00 | 58 | 1010.6 |
| 20260905184303 | 35 | 117 | 6.4 | 9.7 | 0.00 | 0.15 | 0.00 | 56 | 1010.6 |
| 20260905184203 | 35 | 96 | 4.8 | 9.7 | 0.00 | 0.15 | 0.00 | 57 | 1010.7 |
| 20260905184102 | 35 | 82 | 6.4 | 9.7 | 0.00 | 0.15 | 0.00 | 56 | 1010.7 |
| 20260905184003 | 35 | 79 | 4.8 | 9.7 | 0.00 | 0.15 | 0.00 | 56 | 1010.6 |
| 20260905183902 | 35 | 78 | 3.2 | 8.0 | 0.00 | 0.15 | 0.00 | 55 | 1010.7 |
| 20260905183803 | 35 | 72 | 3.2 | 8.0 | 0.00 | 0.15 | 0.00 | 55 | 1010.7 |
| 20260905183703 | 35 | 89 | 4.8 | 9.7 | 0.00 | 0.15 | 0.00 | 55 | 1010.8 |
| 20260905183603 | 35 | 125 | 4.8 | 14.5 | 0.00 | 0.15 | 0.00 | 54 | 1010.7 |
| 20260905183504 | 35 | 65 | 4.8 | 14.5 | 0.00 | 0.15 | 0.00 | 53 | 1010.7 |
| 20260905183404 | 36 | 110 | 3.2 | 14.5 | 0.00 | 0.15 | 0.00 | 54 | 1010.8 |
| 20260905183303 | 35 | 140 | 3.2 | 14.5 | 0.00 | 0.15 | 0.00 | 55 | 1010.7 |
| 20260905183203 | 35 | 176 | 3.2 | 14.5 | 0.00 | 0.15 | 0.00 | 56 | 1010.8 |
| 20260905183102 | 35 | 165 | 4.8 | 14.5 | 0.00 | 0.15 | 0.00 | 56 | 1010.8 |
| 20260905183002 | 35 | 180 | 3.2 | 14.5 | 0.00 | 0.15 | 0.00 | 56 | 1010.8 |
| 20260905182902 | 35 | 240 | 4.8 | 14.5 | 0.00 | 0.15 | 0.00 | 55 | 1010.8 |
| 20260905182803 | 35 | 265 | 9.7 | 14.5 | 0.00 | 0.15 | 0.00 | 56 | 1010.9 |
| 20260905182702 | 35 | 245 | 8.0 | 14.5 | 0.00 | 0.15 | 0.00 | 56 | 1010.9 |
| 20260905182602 | 36 | 230 | 3.2 | 9.7 | 0.00 | 0.15 | 0.00 | 55 | 1010.9 |
| 20260905182502 | 36 | 124 | 3.2 | 8.0 | 0.00 | 0.15 | 0.00 | 54 | 1010.9 |
| 20260905182403 | 36 | 104 | 4.8 | 8.0 | 0.00 | 0.15 | 0.00 | 53 | 1011.0 |
| 20260905182305 | 36 | 147 | 4.8 | 8.0 | 0.00 | 0.15 | 0.00 | 54 | 1011.0 |
| 20260905182201 | 36 | 124 | 3.2 | 8.0 | 0.00 | 0.15 | 0.00 | 55 | 1011.0 |
| 20260905182103 | 35 | 262 | 1.6 | 8.0 | 0.00 | 0.15 | 0.00 | 55 | 1011.0 |
| 20260905182003 | 35 | 262 | 1.6 | 8.0 | 0.00 | 0.15 | 0.00 | 55 | 1011.0 |
| 20260905181903 | 35 | 262 | 1.6 | 8.0 | 0.00 | 0.15 | 0.00 | 55 | 1011.0 |
| 20260905181803 | 35 | 262 | 1.6 | 8.0 | 0.00 | 0.15 | 0.00 | 55 | 1011.1 |
| 20260905181702 | 35 | 142 | 1.6 | 8.0 | 0.00 | 0.15 | 0.00 | 54 | 1011.1 |
| 20260905181603 | 35 | 175 | 3.2 | 8.0 | 0.00 | 0.15 | 0.00 | 54 | 1011.1 |
| 20260905181504 | 35 | 175 | 3.2 | 8.0 | 0.00 | 0.15 | 0.00 | 55 | 1011.2 |
| 20260905181403 | 35 | 228 | 3.2 | 8.0 | 0.00 | 0.15 | 0.00 | 56 | 1011.2 |
| 20260905181303 | 35 | 279 | 4.8 | 8.0 | 0.00 | 0.15 | 0.00 | 57 | 1011.2 |
| 20260905181203 | 35 | 259 | 3.2 | 8.0 | 0.00 | 0.15 | 0.00 | 57 | 1011.3 |
| 20260905181102 | 35 | 231 | 3.2 | 8.0 | 0.00 | 0.15 | 0.00 | 57 | 1011.3 |
| 20260905181002 | 35 | 45 | 3.2 | 8.0 | 0.00 | 0.15 | 0.00 | 57 | 1011.2 |
| 20260905180902 | 35 | 39 | 3.2 | 8.0 | 0.00 | 0.15 | 0.00 | 58 | 1011.3 |
| 20260905180803 | 35 | 71 | 4.8 | 8.0 | 0.00 | 0.15 | 0.00 | 58 | 1011.3 |
| 20260905180702 | 35 | 73 | 6.4 | 8.0 | 0.00 | 0.15 | 0.00 | 57 | 1011.3 |
| 20260905180602 | 35 | 82 | 4.8 | 8.0 | 0.00 | 0.15 | 0.00 | 58 | 1011.3 |
| 20260905180504 | 35 | 48 | 4.8 | 6.4 | 0.00 | 0.15 | 0.00 | 58 | 1011.3 |
| 20260905180403 | 35 | 68 | 3.2 | 6.4 | 0.00 | 0.15 | 0.00 | 59 | 1011.4 |
| 20260905180301 | 35 | 56 | 3.2 | 6.4 | 0.00 | 0.15 | 0.00 | 59 | 1011.4 |
| 20260905180203 | 35 | 56 | 3.2 | 6.4 | 0.00 | 0.15 | 0.00 | 60 | 1011.3 |
| 20260905180003 | 34 | 56 | 4.8 | 6.4 | 0.00 | 0.15 | 0.00 | 60 | 1011.4 |
| 20260905175903 | 34 | 56 | 4.8 | 6.4 | 0.00 | 0.15 | 0.00 | 59 | 1011.5 |
| 20260905175803 | 34 | 73 | 4.8 | 8.0 | 0.00 | 0.15 | 0.00 | 58 | 1011.5 |
| 20260905175701 | 34 | 80 | 4.8 | 8.0 | 0.00 | 0.15 | 0.00 | 59 | 1011.5 |
| 20260905175603 | 35 | 103 | 3.2 | 8.0 | 0.00 | 0.15 | 0.00 | 59 | 1011.5 |
| 20260905175502 | 35 | 25 | 1.6 | 9.7 | 0.00 | 0.15 | 0.00 | 59 | 1011.5 |
| 20260905175404 | 35 | 25 | 3.2 | 9.7 | 0.00 | 0.15 | 0.00 | 59 | 1011.5 |
| 20260905175306 | 35 | 24 | 3.2 | 9.7 | 0.00 | 0.15 | 0.00 | 59 | 1011.5 |
| 20260905175203 | 35 | 24 | 4.8 | 9.7 | 0.00 | 0.15 | 0.00 | 60 | 1011.6 |
| 20260905175104 | 35 | 24 | 3.2 | 9.7 | 0.00 | 0.15 | 0.00 | 60 | 1011.5 |
| 20260905175003 | 35 | 11 | 3.2 | 9.7 | 0.00 | 0.15 | 0.00 | 60 | 1011.6 |
| 20260905174902 | 35 | 11 | 3.2 | 9.7 | 0.00 | 0.15 | 0.00 | 60 | 1011.6 |
| 20260905174803 | 35 | 0 | 4.8 | 9.7 | 0.00 | 0.15 | 0.00 | 60 | 1011.6 |
| 20260905174702 | 35 | 0 | 6.4 | 9.7 | 0.00 | 0.15 | 0.00 | 61 | 1011.6 |
| 20260905174602 | 35 | 20 | 6.4 | 9.7 | 0.00 | 0.15 | 0.00 | 61 | 1011.7 |
| 20260905174503 | 35 | 21 | 4.8 | 9.7 | 0.00 | 0.15 | 0.00 | 61 | 1011.6 |
| 20260905174404 | 35 | 39 | 3.2 | 9.7 | 0.00 | 0.15 | 0.00 | 62 | 1011.7 |
| 20260905174304 | 34 | 13 | 4.8 | 9.7 | 0.00 | 0.15 | 0.00 | 61 | 1011.7 |
| 20260905174202 | 35 | 13 | 6.4 | 9.7 | 0.00 | 0.15 | 0.00 | 61 | 1011.7 |
| 20260905174103 | 34 | 344 | 6.4 | 9.7 | 0.00 | 0.15 | 0.00 | 62 | 1011.7 |
| 20260905174004 | 34 | 17 | 4.8 | 8.0 | 0.00 | 0.15 | 0.00 | 63 | 1011.7 |
| 20260905173902 | 34 | 0 | 4.8 | 8.0 | 0.00 | 0.15 | 0.00 | 63 | 1011.8 |
| 20260905173805 | 34 | 358 | 4.8 | 8.0 | 0.00 | 0.15 | 0.00 | 63 | 1011.9 |
| 20260905173702 | 34 | 331 | 4.8 | 8.0 | 0.00 | 0.15 | 0.00 | 63 | 1011.8 |
| 20260905173601 | 33 | 329 | 3.2 | 8.0 | 0.00 | 0.15 | 0.00 | 65 | 1011.8 |
| 20260905173503 | 33 | 347 | 3.2 | 8.0 | 0.00 | 0.15 | 0.00 | 64 | 1011.9 |
| 20260905173403 | 33 | 345 | 3.2 | 8.0 | 0.00 | 0.15 | 0.00 | 65 | 1011.8 |
| 20260905173302 | 33 | 345 | 4.8 | 8.0 | 0.00 | 0.15 | 0.00 | 64 | 1011.9 |
| 20260905173202 | 33 | 345 | 4.8 | 8.0 | 0.00 | 0.15 | 0.00 | 65 | 1011.9 |
| 20260905173103 | 33 | 347 | 4.8 | 8.0 | 0.00 | 0.15 | 0.00 | 65 | 1011.9 |
| 20260905173003 | 33 | 337 | 3.2 | 6.4 | 0.00 | 0.15 | 0.00 | 66 | 1011.9 |
| 20260905172902 | 33 | 1 | 1.6 | 4.8 | 0.00 | 0.15 | 0.00 | 65 | 1011.9 |
| 20260905172802 | 32 | 44 | 3.2 | 4.8 | 0.00 | 0.15 | 0.00 | 64 | 1011.9 |
| 20260905172702 | 32 | 44 | 3.2 | 4.8 | 0.00 | 0.15 | 0.00 | 65 | 1012.0 |
| 20260905172602 | 32 | 55 | 3.2 | 4.8 | 0.00 | 0.15 | 0.00 | 63 | 1011.9 |
| 20260905172502 | 32 | 55 | 1.6 | 6.4 | 0.00 | 0.15 | 0.00 | 62 | 1012.0 |
| 20260905172403 | 32 | 55 | 3.2 | 6.4 | 0.00 | 0.15 | 0.00 | 62 | 1012.0 |
| 20260905172305 | 32 | 55 | 3.2 | 6.4 | 0.00 | 0.15 | 0.00 | 62 | 1012.0 |
| 20260905172200 | 32 | 55 | 1.6 | 6.4 | 0.00 | 0.15 | 0.00 | 62 | 1012.0 |
| 20260905172059 | 32 | 55 | 1.6 | 6.4 | 0.00 | 0.15 | 0.00 | 64 | 1012.0 |
| 20260905171957 | 32 | 55 | 1.6 | 6.4 | 0.00 | 0.15 | 0.00 | 65 | 1012.0 |
| 20260905171856 | 32 | 45 | 1.6 | 6.4 | 0.00 | 0.15 | 0.00 | 64 | 1012.0 |
| 20260905171753 | 32 | 45 | 1.6 | 8.0 | 0.00 | 0.15 | 0.00 | 64 | 1012.0 |
| 20260905171651 | 32 | 45 | 3.2 | 8.0 | 0.00 | 0.15 | 0.00 | 63 | 1012.0 |
| 20260905171552 | 32 | 45 | 4.8 | 8.0 | 0.00 | 0.15 | 0.00 | 63 | 1012.0 |
| 20260905171449 | 32 | 44 | 3.2 | 8.0 | 0.00 | 0.15 | 0.00 | 63 | 1012.0 |
| 20260905171347 | 33 | 44 | 1.6 | 8.0 | 0.00 | 0.15 | 0.00 | 63 | 1012.0 |
| 20260905171247 | 33 | 44 | 1.6 | 8.0 | 0.00 | 0.15 | 0.00 | 63 | 1012.1 |
| 20260905171145 | 33 | 44 | 3.2 | 9.7 | 0.00 | 0.15 | 0.00 | 62 | 1012.1 |
| 20260905171043 | 33 | 44 | 3.2 | 9.7 | 0.00 | 0.15 | 0.00 | 62 | 1012.1 |
| 20260905170942 | 33 | 44 | 4.8 | 9.7 | 0.00 | 0.15 | 0.00 | 61 | 1012.1 |
| 20260905170841 | 34 | 44 | 3.2 | 9.7 | 0.00 | 0.15 | 0.00 | 60 | 1012.1 |
| 20260905170736 | 34 | 32 | 1.6 | 9.7 | 0.00 | 0.15 | 0.00 | 59 | 1012.2 |
| 20260905170633 | 34 | 4 | 3.2 | 9.7 | 0.00 | 0.15 | 0.00 | 58 | 1012.2 |
| 20260905170532 | 34 | 3 | 3.2 | 9.7 | 0.00 | 0.15 | 0.00 | 59 | 1012.2 |
| 20260905170430 | 34 | 3 | 4.8 | 9.7 | 0.00 | 0.15 | 0.00 | 59 | 1012.1 |
| 20260905170332 | 34 | 1 | 6.4 | 9.7 | 0.00 | 0.15 | 0.00 | 59 | 1012.1 |
| 20260905170228 | 34 | 6 | 6.4 | 9.7 | 0.00 | 0.15 | 0.00 | 59 | 1012.1 |
| 20260905170126 | 34 | 350 | 6.4 | 8.0 | 0.00 | 0.15 | 0.00 | 59 | 1012.1 |
| 20260905170026 | 34 | 340 | 4.8 | 8.0 | 0.00 | 0.15 | 0.00 | 61 | 1012.1 |
| 20260905165923 | 33 | 6 | 6.4 | 9.7 | 0.00 | 0.15 | 0.00 | 62 | 1012.1 |
| 20260905165823 | 33 | 18 | 4.8 | 9.7 | 0.00 | 0.15 | 0.00 | 62 | 1012.2 |
| 20260905165724 | 33 | 0 | 3.2 | 9.7 | 0.00 | 0.15 | 0.00 | 63 | 1012.1 |
| 20260905165624 | 33 | 347 | 1.6 | 9.7 | 0.00 | 0.15 | 0.00 | 65 | 1012.2 |
| 20260905165523 | 33 | 334 | 1.6 | 9.7 | 0.00 | 0.15 | 0.00 | 65 | 1012.2 |
| 20260905165424 | 33 | 334 | 3.2 | 9.7 | 0.00 | 0.15 | 0.00 | 64 | 1012.1 |
| 20260905165324 | 33 | 306 | 3.2 | 9.7 | 0.00 | 0.15 | 0.00 | 64 | 1012.2 |
| 20260905165223 | 33 | 306 | 3.2 | 9.7 | 0.00 | 0.15 | 0.00 | 64 | 1012.2 |
| 20260905165122 | 33 | 306 | 6.4 | 9.7 | 0.00 | 0.15 | 0.00 | 65 | 1012.2 |
| 20260905165025 | 33 | 307 | 8.0 | 9.7 | 0.00 | 0.15 | 0.00 | 65 | 1012.2 |
| 20260905164923 | 33 | 314 | 4.8 | 9.7 | 0.00 | 0.15 | 0.00 | 64 | 1012.2 |
| 20260905164823 | 33 | 330 | 3.2 | 6.4 | 0.00 | 0.15 | 0.00 | 63 | 1012.2 |
| 20260905164724 | 33 | 299 | 3.2 | 6.4 | 0.00 | 0.15 | 0.00 | 64 | 1012.2 |
| 20260905164624 | 33 | 337 | 1.6 | 6.4 | 0.00 | 0.15 | 0.00 | 65 | 1012.2 |
| 20260905164525 | 33 | 337 | 1.6 | 6.4 | 0.00 | 0.15 | 0.00 | 64 | 1012.2 |
| 20260905164424 | 33 | 314 | 3.2 | 6.4 | 0.00 | 0.15 | 0.00 | 63 | 1012.2 |
| 20260905164324 | 33 | 314 | 3.2 | 6.4 | 0.00 | 0.15 | 0.00 | 64 | 1012.2 |
| 20260905164223 | 32 | 314 | 3.2 | 6.4 | 0.00 | 0.15 | 0.00 | 64 | 1012.2 |
| 20260905164123 | 32 | 314 | 4.8 | 6.4 | 0.00 | 0.15 | 0.00 | 62 | 1012.2 |
| 20260905164024 | 33 | 316 | 4.8 | 6.4 | 0.00 | 0.15 | 0.00 | 63 | 1012.2 |
| 20260905163923 | 33 | 316 | 3.2 | 8.0 | 0.00 | 0.15 | 0.00 | 63 | 1012.2 |
| 20260905163823 | 33 | 319 | 0.0 | 8.0 | 0.00 | 0.15 | 0.00 | 62 | 1012.3 |
| 20260905163723 | 33 | 319 | 1.6 | 8.0 | 0.00 | 0.15 | 0.00 | 63 | 1012.2 |
| 20260905163624 | 33 | 319 | 3.2 | 8.0 | 0.00 | 0.15 | 0.00 | 64 | 1012.3 |
| 20260905163523 | 33 | 319 | 3.2 | 8.0 | 0.00 | 0.15 | 0.00 | 64 | 1012.3 |
| 20260905163423 | 33 | 319 | 3.2 | 8.0 | 0.00 | 0.15 | 0.00 | 65 | 1012.3 |
| 20260905163323 | 33 | 319 | 3.2 | 8.0 | 0.00 | 0.15 | 0.00 | 64 | 1012.3 |
| 20260905163223 | 33 | 317 | 3.2 | 8.0 | 0.00 | 0.15 | 0.00 | 64 | 1012.3 |
| 20260905163123 | 33 | 317 | 4.8 | 9.7 | 0.00 | 0.15 | 0.00 | 64 | 1012.3 |
| 20260905163022 | 33 | 317 | 4.8 | 9.7 | 0.00 | 0.15 | 0.00 | 63 | 1012.3 |
| 20260905162922 | 33 | 313 | 3.2 | 9.7 | 0.00 | 0.15 | 0.00 | 63 | 1012.3 |
| 20260905162823 | 33 | 331 | 3.2 | 9.7 | 0.00 | 0.15 | 0.00 | 63 | 1012.3 |
| 20260905162722 | 33 | 331 | 3.2 | 9.7 | 0.00 | 0.15 | 0.00 | 61 | 1012.3 |
| 20260905162624 | 33 | 331 | 3.2 | 9.7 | 0.00 | 0.15 | 0.00 | 61 | 1012.4 |
| 20260905162523 | 33 | 331 | 4.8 | 9.7 | 0.00 | 0.15 | 0.00 | 63 | 1012.3 |
| 20260905162423 | 33 | 331 | 4.8 | 9.7 | 0.00 | 0.15 | 0.00 | 64 | 1012.3 |
| 20260905162323 | 33 | 320 | 4.8 | 9.7 | 0.00 | 0.15 | 0.00 | 63 | 1012.3 |
| 20260905162223 | 33 | 326 | 4.8 | 9.7 | 0.00 | 0.15 | 0.00 | 65 | 1012.3 |
| 20260905162123 | 33 | 324 | 4.8 | 8.0 | 0.00 | 0.15 | 0.00 | 65 | 1012.3 |
| 20260905162022 | 33 | 326 | 4.8 | 8.0 | 0.00 | 0.15 | 0.00 | 64 | 1012.4 |
| 20260905161924 | 33 | 327 | 4.8 | 8.0 | 0.00 | 0.15 | 0.00 | 65 | 1012.3 |
| 20260905161823 | 33 | 313 | 4.8 | 8.0 | 0.00 | 0.15 | 0.00 | 67 | 1012.3 |
| 20260905161722 | 33 | 0 | 3.2 | 8.0 | 0.00 | 0.15 | 0.00 | 67 | 1012.3 |
| 20260905161623 | 33 | 6 | 3.2 | 8.0 | 0.00 | 0.15 | 0.00 | 67 | 1012.3 |
| 20260905161523 | 33 | 6 | 3.2 | 8.0 | 0.00 | 0.15 | 0.00 | 67 | 1012.3 |
| 20260905161422 | 33 | 6 | 3.2 | 8.0 | 0.00 | 0.15 | 0.00 | 67 | 1012.3 |
| 20260905161322 | 33 | 348 | 3.2 | 8.0 | 0.00 | 0.15 | 0.00 | 67 | 1012.3 |
| 20260905161224 | 33 | 347 | 3.2 | 8.0 | 0.00 | 0.15 | 0.00 | 68 | 1012.3 |
| 20260905161122 | 32 | 345 | 3.2 | 8.0 | 0.00 | 0.15 | 0.00 | 68 | 1012.3 |
| 20260905161024 | 32 | 345 | 3.2 | 8.0 | 0.00 | 0.15 | 0.00 | 68 | 1012.4 |
| 20260905160925 | 32 | 345 | 4.8 | 8.0 | 0.00 | 0.15 | 0.00 | 68 | 1012.4 |
| 20260905160822 | 32 | 0 | 4.8 | 8.0 | 0.00 | 0.15 | 0.00 | 69 | 1012.3 |
| 20260905160722 | 32 | 0 | 4.8 | 8.0 | 0.00 | 0.15 | 0.00 | 68 | 1012.3 |
| 20260905160622 | 32 | 0 | 4.8 | 8.0 | 0.00 | 0.15 | 0.00 | 68 | 1012.4 |
| 20260905160525 | 32 | 0 | 6.4 | 8.0 | 0.00 | 0.15 | 0.00 | 68 | 1012.4 |
| 20260905160421 | 32 | 345 | 6.4 | 8.0 | 0.00 | 0.15 | 0.00 | 69 | 1012.3 |
| 20260905160322 | 32 | 345 | 4.8 | 6.4 | 0.00 | 0.15 | 0.00 | 69 | 1012.3 |
| 20260905160223 | 32 | 324 | 3.2 | 6.4 | 0.00 | 0.15 | 0.00 | 69 | 1012.3 |
| 20260905160122 | 32 | 321 | 1.6 | 8.0 | 0.00 | 0.15 | 0.00 | 69 | 1012.3 |
| 20260905160022 | 32 | 313 | 1.6 | 8.0 | 0.00 | 0.15 | 0.00 | 69 | 1012.3 |
| 20260905155923 | 32 | 258 | 1.6 | 8.0 | 0.00 | 0.15 | 0.00 | 70 | 1012.3 |
| 20260905155822 | 32 | 258 | 1.6 | 8.0 | 0.00 | 0.15 | 0.00 | 71 | 1012.3 |
| 20260905155722 | 32 | 210 | 1.6 | 8.0 | 0.00 | 0.15 | 0.00 | 71 | 1012.3 |
| 20260905155621 | 32 | 124 | 3.2 | 9.7 | 0.00 | 0.15 | 0.00 | 72 | 1012.3 |
| 20260905155521 | 32 | 127 | 3.2 | 9.7 | 0.00 | 0.15 | 0.00 | 72 | 1012.3 |
| 20260905155422 | 32 | 165 | 4.8 | 9.7 | 0.00 | 0.15 | 0.00 | 72 | 1012.3 |
| 20260905155321 | 32 | 193 | 4.8 | 9.7 | 0.00 | 0.15 | 0.00 | 72 | 1012.3 |
| 20260905155221 | 32 | 227 | 6.4 | 9.7 | 0.00 | 0.15 | 0.00 | 72 | 1012.3 |
| 20260905155123 | 32 | 250 | 6.4 | 9.7 | 0.00 | 0.15 | 0.00 | 73 | 1012.3 |
| 20260905155021 | 31 | 238 | 6.4 | 9.7 | 0.00 | 0.15 | 0.00 | 74 | 1012.3 |
| 20260905154921 | 31 | 240 | 6.4 | 9.7 | 0.00 | 0.15 | 0.00 | 73 | 1012.4 |
| 20260905154822 | 31 | 200 | 6.4 | 9.7 | 0.00 | 0.15 | 0.00 | 73 | 1012.3 |
| 20260905154722 | 31 | 257 | 8.0 | 9.7 | 0.00 | 0.15 | 0.00 | 74 | 1012.3 |
| 20260905154621 | 31 | 250 | 8.0 | 9.7 | 0.00 | 0.15 | 0.00 | 75 | 1012.3 |
| 20260905154522 | 31 | 235 | 8.0 | 8.0 | 0.00 | 0.15 | 0.00 | 75 | 1012.3 |
| 20260905154422 | 31 | 251 | 4.8 | 6.4 | 0.00 | 0.15 | 0.00 | 75 | 1012.3 |
| 20260905154323 | 31 | 251 | 4.8 | 6.4 | 0.00 | 0.15 | 0.00 | 75 | 1012.3 |
| 20260905154222 | 31 | 251 | 4.8 | 6.4 | 0.00 | 0.15 | 0.00 | 75 | 1012.3 |
| 20260905154122 | 31 | 261 | 4.8 | 8.0 | 0.00 | 0.15 | 0.00 | 75 | 1012.3 |
| 20260905154022 | 31 | 265 | 4.8 | 8.0 | 0.00 | 0.15 | 0.00 | 76 | 1012.4 |
| 20260905153921 | 31 | 266 | 4.8 | 8.0 | 0.00 | 0.15 | 0.00 | 75 | 1012.5 |
| 20260905153821 | 31 | 282 | 1.6 | 8.0 | 0.00 | 0.15 | 0.00 | 77 | 1012.5 |
| 20260905153722 | 31 | 298 | 1.6 | 8.0 | 0.00 | 0.15 | 0.00 | 77 | 1012.5 |
| 20260905153622 | 31 | 298 | 0.0 | 8.0 | 0.00 | 0.15 | 0.00 | 77 | 1012.5 |
| 20260905153521 | 31 | 298 | 0.0 | 8.0 | 0.00 | 0.15 | 0.00 | 78 | 1012.5 |
| 20260905153423 | 31 | 298 | 1.6 | 8.0 | 0.00 | 0.15 | 0.00 | 78 | 1012.6 |
| 20260905153321 | 31 | 298 | 3.2 | 8.0 | 0.00 | 0.15 | 0.00 | 78 | 1012.5 |
| 20260905153222 | 31 | 298 | 4.8 | 8.0 | 0.00 | 0.15 | 0.00 | 78 | 1012.6 |
| 20260905153123 | 31 | 309 | 4.8 | 8.0 | 0.00 | 0.15 | 0.00 | 78 | 1012.5 |
| 20260905153021 | 31 | 309 | 4.8 | 8.0 | 0.00 | 0.15 | 0.00 | 78 | 1012.5 |
| 20260905152921 | 31 | 310 | 4.8 | 8.0 | 0.00 | 0.15 | 0.00 | 78 | 1012.5 |
| 20260905152821 | 31 | 312 | 4.8 | 8.0 | 0.00 | 0.15 | 0.00 | 78 | 1012.5 |
| 20260905152723 | 31 | 312 | 4.8 | 8.0 | 0.00 | 0.15 | 0.00 | 77 | 1012.5 |
| 20260905152621 | 31 | 313 | 3.2 | 8.0 | 0.00 | 0.15 | 0.00 | 78 | 1012.4 |
| 20260905152521 | 31 | 313 | 4.8 | 8.0 | 0.00 | 0.15 | 0.00 | 78 | 1012.5 |
| 20260905152423 | 31 | 313 | 4.8 | 8.0 | 0.00 | 0.15 | 0.00 | 79 | 1012.5 |
| 20260905152321 | 31 | 320 | 4.8 | 8.0 | 0.00 | 0.15 | 0.00 | 78 | 1012.4 |
| 20260905152221 | 31 | 317 | 6.4 | 8.0 | 0.00 | 0.15 | 0.00 | 79 | 1012.4 |
| 20260905152120 | 31 | 317 | 4.8 | 6.4 | 0.00 | 0.15 | 0.00 | 79 | 1012.4 |
| 20260905152023 | 31 | 347 | 4.8 | 6.4 | 0.00 | 0.15 | 0.00 | 79 | 1012.4 |
| 20260905151921 | 31 | 347 | 4.8 | 6.4 | 0.00 | 0.15 | 0.00 | 79 | 1012.4 |
| 20260905151820 | 31 | 323 | 1.6 | 6.4 | 0.00 | 0.15 | 0.00 | 79 | 1012.4 |
| 20260905151722 | 31 | 316 | 0.0 | 0.0 | 0.00 | 0.15 | 0.00 | 80 | 1012.4 |
| 20260905151622 | 30 | 312 | 0.0 | 0.0 | 0.00 | 0.15 | 0.00 | 80 | 1012.4 |
| 20260905151520 | 30 | 271 | 0.0 | 0.0 | 0.00 | 0.15 | 0.00 | 80 | 1012.5 |
| 20260905151420 | 30 | 271 | 0.0 | 0.0 | 0.00 | 0.15 | 0.00 | 80 | 1012.4 |
| 20260905151322 | 30 | 271 | 0.0 | 0.0 | 0.00 | 0.15 | 0.00 | 80 | 1012.4 |
| 20260905151222 | 30 | 271 | 0.0 | 0.0 | 0.00 | 0.15 | 0.00 | 80 | 1012.5 |
| 20260905151122 | 30 | 271 | 0.0 | 0.0 | 0.00 | 0.15 | 0.00 | 80 | 1012.5 |
| 20260905151021 | 30 | 271 | 0.0 | 0.0 | 0.00 | 0.15 | 0.00 | 80 | 1012.5 |
| 20260905150920 | 30 | 271 | 0.0 | 0.0 | 0.00 | 0.15 | 0.00 | 81 | 1012.4 |
| 20260905150820 | 30 | 271 | 0.0 | 0.0 | 0.00 | 0.15 | 0.00 | 81 | 1012.5 |
| 20260905150721 | 30 | 271 | 0.0 | 0.0 | 0.00 | 0.15 | 0.00 | 81 | 1012.5 |
| 20260905150621 | 30 | 271 | 0.0 | 0.0 | 0.00 | 0.15 | 0.00 | 82 | 1012.5 |
| 20260905150521 | 30 | 337 | 0.0 | 0.0 | 0.00 | 0.15 | 0.00 | 83 | 1012.5 |
| 20260905150420 | 30 | 337 | 0.0 | 0.0 | 0.00 | 0.15 | 0.00 | 83 | 1012.4 |
| 20260905150321 | 30 | 337 | 0.0 | 0.0 | 0.00 | 0.15 | 0.00 | 83 | 1012.5 |
| 20260905150221 | 30 | 337 | 0.0 | 0.0 | 0.00 | 0.15 | 0.00 | 83 | 1012.4 |
| 20260905150120 | 30 | 337 | 0.0 | 0.0 | 0.00 | 0.15 | 0.00 | 83 | 1012.4 |
| 20260905150020 | 30 | 337 | 0.0 | 0.0 | 0.00 | 0.15 | 0.00 | 83 | 1012.4 |
| 20260905145922 | 30 | 337 | 0.0 | 0.0 | 0.00 | 0.15 | 0.00 | 83 | 1012.4 |
| 20260905145820 | 30 | 337 | 0.0 | 0.0 | 0.00 | 0.15 | 0.00 | 83 | 1012.4 |
| 20260905145720 | 30 | 337 | 0.0 | 0.0 | 0.00 | 0.15 | 0.00 | 82 | 1012.4 |
| 20260905145622 | 30 | 337 | 0.0 | 0.0 | 0.00 | 0.15 | 0.00 | 82 | 1012.4 |
| 20260905145521 | 30 | 337 | 0.0 | 0.0 | 0.00 | 0.15 | 0.00 | 82 | 1012.4 |
| 20260905145422 | 30 | 337 | 0.0 | 0.0 | 0.00 | 0.15 | 0.00 | 82 | 1012.4 |
| 20260905145321 | 30 | 0 | 0.0 | 0.0 | 0.00 | 0.15 | 0.00 | 82 | 1012.4 |
| 20260905145223 | 30 | 0 | 0.0 | 0.0 | 0.00 | 0.15 | 0.00 | 82 | 1012.4 |
| 20260905145122 | 30 | 0 | 0.0 | 0.0 | 0.00 | 0.15 | 0.00 | 83 | 1012.3 |
| 20260905145021 | 30 | 25 | 0.0 | 0.0 | 0.00 | 0.15 | 0.00 | 83 | 1012.4 |
| 20260905144923 | 30 | 25 | 0.0 | 0.0 | 0.00 | 0.15 | 0.00 | 83 | 1012.4 |
| 20260905144821 | 30 | 27 | 0.0 | 0.0 | 0.00 | 0.15 | 0.00 | 84 | 1012.4 |
| 20260905144721 | 30 | 27 | 0.0 | 0.0 | 0.00 | 0.15 | 0.00 | 85 | 1012.3 |
| 20260905144621 | 30 | 27 | 0.0 | 0.0 | 0.00 | 0.15 | 0.00 | 84 | 1012.3 |
| 20260905144522 | 30 | 27 | 0.0 | 0.0 | 0.00 | 0.15 | 0.00 | 84 | 1012.3 |
| 20260905144420 | 30 | 27 | 0.0 | 0.0 | 0.00 | 0.15 | 0.00 | 85 | 1012.3 |
| 20260905144320 | 30 | 23 | 0.0 | 0.0 | 0.00 | 0.15 | 0.00 | 85 | 1012.3 |
| 20260905144219 | 30 | 0 | 0.0 | 0.0 | 0.00 | 0.15 | 0.00 | 85 | 1012.3 |
| 20260905144120 | 30 | 0 | 0.0 | 0.0 | 0.00 | 0.15 | 0.00 | 85 | 1012.3 |
| 20260905144020 | 30 | 0 | 0.0 | 0.0 | 0.00 | 0.15 | 0.00 | 85 | 1012.4 |
| 20260905143921 | 30 | 0 | 0.0 | 0.0 | 0.00 | 0.15 | 0.00 | 85 | 1012.3 |
| 20260905143821 | 30 | 0 | 0.0 | 0.0 | 0.00 | 0.15 | 0.00 | 85 | 1012.4 |
| 20260905143722 | 30 | 0 | 0.0 | 0.0 | 0.00 | 0.15 | 0.00 | 85 | 1012.4 |
| 20260905143620 | 30 | 0 | 0.0 | 0.0 | 0.00 | 0.15 | 0.00 | 85 | 1012.4 |
| 20260905143522 | 30 | 13 | 0.0 | 0.0 | 0.00 | 0.15 | 0.00 | 85 | 1012.4 |
| 20260905143419 | 30 | 14 | 0.0 | 0.0 | 0.00 | 0.15 | 0.00 | 85 | 1012.5 |
| 20260905143321 | 30 | 14 | 0.0 | 0.0 | 0.00 | 0.15 | 0.00 | 86 | 1012.4 |
| 20260905143221 | 29 | 49 | 0.0 | 0.0 | 0.00 | 0.15 | 0.00 | 87 | 1012.5 |
| 20260905143121 | 29 | 49 | 0.0 | 0.0 | 0.00 | 0.15 | 0.00 | 87 | 1012.6 |
| 20260905143020 | 29 | 49 | 0.0 | 0.0 | 0.00 | 0.15 | 0.00 | 87 | 1012.5 |
| 20260905142920 | 29 | 344 | 0.0 | 0.0 | 0.00 | 0.15 | 0.00 | 86 | 1012.5 |
| 20260905142820 | 29 | 345 | 0.0 | 0.0 | 0.00 | 0.15 | 0.00 | 86 | 1012.4 |
| 20260905142720 | 29 | 344 | 0.0 | 0.0 | 0.00 | 0.15 | 0.00 | 87 | 1012.5 |
| 20260905142620 | 29 | 345 | 0.0 | 0.0 | 0.00 | 0.15 | 0.00 | 87 | 1012.5 |
| 20260905142520 | 29 | 345 | 0.0 | 0.0 | 0.00 | 0.15 | 0.00 | 87 | 1012.5 |
| 20260905142420 | 29 | 345 | 0.0 | 0.0 | 0.00 | 0.15 | 0.00 | 87 | 1012.4 |
| 20260905142320 | 29 | 345 | 0.0 | 0.0 | 0.00 | 0.15 | 0.00 | 87 | 1012.4 |
| 20260905142219 | 29 | 345 | 0.0 | 3.2 | 0.00 | 0.15 | 0.00 | 87 | 1012.3 |
| 20260905142120 | 29 | 345 | 0.0 | 3.2 | 0.00 | 0.15 | 0.00 | 87 | 1012.4 |
| 20260905142020 | 29 | 345 | 0.0 | 4.8 | 0.00 | 0.15 | 0.00 | 87 | 1012.3 |
| 20260905141920 | 29 | 345 | 0.0 | 4.8 | 0.00 | 0.15 | 0.00 | 87 | 1012.4 |
| 20260905141819 | 29 | 345 | 0.0 | 4.8 | 0.00 | 0.15 | 0.00 | 87 | 1012.4 |
| 20260905141720 | 29 | 345 | 0.0 | 4.8 | 0.00 | 0.15 | 0.00 | 88 | 1012.4 |
| 20260905141620 | 29 | 345 | 0.0 | 4.8 | 0.00 | 0.15 | 0.00 | 88 | 1012.4 |
| 20260905141519 | 29 | 345 | 0.0 | 4.8 | 0.00 | 0.15 | 0.00 | 88 | 1012.3 |
| 20260905141420 | 28 | 345 | 0.0 | 4.8 | 0.00 | 0.15 | 0.00 | 88 | 1012.3 |
| 20260905141319 | 28 | 345 | 1.6 | 4.8 | 0.00 | 0.15 | 0.00 | 88 | 1012.3 |
| 20260905141219 | 28 | 345 | 3.2 | 6.4 | 0.00 | 0.15 | 0.00 | 88 | 1012.3 |
| 20260905141121 | 28 | 345 | 3.2 | 6.4 | 0.00 | 0.15 | 0.00 | 88 | 1012.4 |
| 20260905141019 | 28 | 343 | 3.2 | 6.4 | 0.00 | 0.15 | 0.00 | 88 | 1012.3 |
| 20260905140920 | 28 | 341 | 3.2 | 6.4 | 0.00 | 0.15 | 0.00 | 89 | 1012.4 |
| 20260905140820 | 28 | 341 | 3.2 | 6.4 | 0.00 | 0.15 | 0.00 | 89 | 1012.4 |
| 20260905140720 | 28 | 341 | 1.6 | 6.4 | 0.00 | 0.15 | 0.00 | 89 | 1012.3 |
| 20260905140620 | 28 | 340 | 0.0 | 6.4 | 0.00 | 0.15 | 0.00 | 89 | 1012.3 |
| 20260905140519 | 28 | 340 | 0.0 | 6.4 | 0.00 | 0.15 | 0.00 | 89 | 1012.3 |
| 20260905140420 | 28 | 340 | 1.6 | 6.4 | 0.00 | 0.15 | 0.00 | 90 | 1012.3 |
| 20260905140320 | 28 | 340 | 1.6 | 6.4 | 0.00 | 0.15 | 0.00 | 90 | 1012.3 |
| 20260905140219 | 28 | 331 | 0.0 | 4.8 | 0.00 | 0.15 | 0.00 | 90 | 1012.2 |
| 20260905140119 | 28 | 331 | 0.0 | 4.8 | 0.00 | 0.15 | 0.00 | 90 | 1012.3 |
| 20260905140021 | 28 | 331 | 0.0 | 4.8 | 0.00 | 0.15 | 0.00 | 90 | 1012.3 |
| 20260905135919 | 28 | 331 | 0.0 | 4.8 | 0.00 | 0.15 | 0.00 | 91 | 1012.2 |
| 20260905135819 | 28 | 331 | 0.0 | 4.8 | 0.00 | 0.15 | 0.00 | 91 | 1012.3 |
| 20260905135720 | 28 | 331 | 0.0 | 4.8 | 0.00 | 0.15 | 0.00 | 91 | 1012.2 |
| 20260905135619 | 28 | 331 | 0.0 | 4.8 | 0.00 | 0.15 | 0.00 | 91 | 1012.3 |
| 20260905135520 | 28 | 331 | 1.6 | 4.8 | 0.00 | 0.15 | 0.00 | 91 | 1012.2 |
| 20260905135420 | 28 | 331 | 1.6 | 4.8 | 0.00 | 0.15 | 0.00 | 91 | 1012.2 |
| 20260905135322 | 28 | 331 | 3.2 | 4.8 | 0.00 | 0.15 | 0.00 | 91 | 1012.2 |
| 20260905135219 | 28 | 331 | 1.6 | 4.8 | 0.00 | 0.15 | 0.00 | 92 | 1012.2 |
| 20260905135119 | 28 | 329 | 1.6 | 4.8 | 0.00 | 0.15 | 0.00 | 92 | 1012.2 |
| 20260905135019 | 28 | 329 | 1.6 | 4.8 | 0.00 | 0.15 | 0.00 | 92 | 1012.2 |
| 20260905134919 | 28 | 329 | 0.0 | 0.0 | 0.00 | 0.15 | 0.00 | 93 | 1012.2 |
| 20260905134819 | 28 | 329 | 0.0 | 0.0 | 0.00 | 0.15 | 0.00 | 93 | 1012.2 |
| 20260905134720 | 27 | 329 | 0.0 | 0.0 | 0.00 | 0.15 | 0.00 | 93 | 1012.2 |
| 20260905134618 | 27 | 329 | 0.0 | 0.0 | 0.00 | 0.15 | 0.00 | 93 | 1012.1 |
| 20260905134520 | 27 | 329 | 0.0 | 0.0 | 0.00 | 0.15 | 0.00 | 93 | 1012.2 |
| 20260905134418 | 27 | 329 | 0.0 | 0.0 | 0.00 | 0.15 | 0.00 | 93 | 1012.1 |
| 20260905134319 | 27 | 329 | 0.0 | 0.0 | 0.00 | 0.15 | 0.00 | 94 | 1012.1 |
| 20260905134218 | 27 | 329 | 0.0 | 0.0 | 0.00 | 0.15 | 0.00 | 94 | 1012.1 |
| 20260905134120 | 27 | 327 | 0.0 | 0.0 | 0.00 | 0.15 | 0.00 | 94 | 1012.1 |
| 20260905134018 | 27 | 327 | 0.0 | 1.6 | 0.00 | 0.15 | 0.00 | 95 | 1012.2 |
| 20260905133918 | 27 | 327 | 0.0 | 4.8 | 0.00 | 0.15 | 0.00 | 95 | 1012.2 |
| 20260905133820 | 27 | 327 | 0.0 | 6.4 | 0.00 | 0.15 | 0.00 | 95 | 1012.2 |
| 20260905133719 | 27 | 327 | 0.0 | 6.4 | 0.00 | 0.15 | 0.00 | 95 | 1012.1 |
| 20260905133619 | 27 | 327 | 0.0 | 6.4 | 0.00 | 0.15 | 0.00 | 95 | 1012.1 |
| 20260905133519 | 27 | 327 | 0.0 | 6.4 | 0.00 | 0.15 | 0.00 | 95 | 1012.1 |
| 20260905133418 | 27 | 327 | 0.0 | 6.4 | 0.00 | 0.15 | 0.00 | 95 | 1012.1 |
| 20260905133318 | 27 | 327 | 0.0 | 6.4 | 0.00 | 0.15 | 0.00 | 95 | 1012.1 |
| 20260905133218 | 27 | 327 | 0.0 | 6.4 | 0.00 | 0.15 | 0.00 | 95 | 1012.1 |
| 20260905133119 | 27 | 327 | 1.6 | 6.4 | 0.00 | 0.15 | 0.00 | 95 | 1012.1 |
| 20260905133019 | 27 | 327 | 3.2 | 6.4 | 0.00 | 0.15 | 0.00 | 95 | 1012.1 |
| 20260905132920 | 27 | 327 | 1.6 | 4.8 | 0.00 | 0.15 | 0.00 | 95 | 1012.1 |
| 20260905132820 | 27 | 323 | 0.0 | 3.2 | 0.00 | 0.15 | 0.00 | 95 | 1012.0 |
| 20260905132719 | 27 | 323 | 0.0 | 3.2 | 0.00 | 0.15 | 0.00 | 96 | 1012.1 |
| 20260905132620 | 27 | 307 | 0.0 | 3.2 | 0.00 | 0.15 | 0.00 | 96 | 1012.1 |
| 20260905132520 | 27 | 307 | 0.0 | 3.2 | 0.00 | 0.15 | 0.00 | 96 | 1012.1 |
| 20260905132418 | 27 | 307 | 0.0 | 3.2 | 0.00 | 0.15 | 0.00 | 96 | 1012.1 |
| 20260905132318 | 27 | 307 | 0.0 | 3.2 | 0.00 | 0.15 | 0.00 | 96 | 1012.2 |
| 20260905132220 | 27 | 307 | 0.0 | 3.2 | 0.00 | 0.15 | 0.00 | 96 | 1012.1 |
| 20260905132118 | 27 | 307 | 0.0 | 3.2 | 0.00 | 0.15 | 0.00 | 96 | 1012.1 |
| 20260905132020 | 27 | 307 | 0.0 | 3.2 | 0.00 | 0.15 | 0.00 | 96 | 1012.2 |
| 20260905131920 | 27 | 307 | 0.0 | 3.2 | 0.00 | 0.15 | 0.00 | 96 | 1012.1 |
| 20260905131819 | 27 | 307 | 0.0 | 1.6 | 0.00 | 0.15 | 0.00 | 96 | 1012.0 |
| 20260905131718 | 27 | 307 | 0.0 | 0.0 | 0.00 | 0.15 | 0.00 | 97 | 1012.1 |
| 20260905131619 | 26 | 307 | 0.0 | 0.0 | 0.00 | 0.15 | 0.00 | 97 | 1012.1 |
| 20260905131520 | 26 | 307 | 0.0 | 0.0 | 0.00 | 0.15 | 0.00 | 97 | 1012.0 |
| 20260905131418 | 26 | 307 | 0.0 | 0.0 | 0.00 | 0.15 | 0.00 | 97 | 1012.0 |
| 20260905131318 | 26 | 307 | 0.0 | 0.0 | 0.00 | 0.15 | 0.00 | 97 | 1012.0 |
| 20260905131219 | 26 | 307 | 0.0 | 0.0 | 0.00 | 0.15 | 0.00 | 97 | 1012.0 |
| 20260905131119 | 26 | 307 | 0.0 | 0.0 | 0.00 | 0.15 | 0.00 | 97 | 1012.1 |
| 20260905131019 | 26 | 307 | 0.0 | 0.0 | 0.00 | 0.15 | 0.00 | 97 | 1012.1 |
| 20260905130918 | 26 | 307 | 0.0 | 0.0 | 0.00 | 0.15 | 0.00 | 97 | 1012.0 |
| 20260905130819 | 26 | 307 | 0.0 | 0.0 | 0.00 | 0.15 | 0.00 | 97 | 1012.1 |
| 20260905130718 | 26 | 307 | 0.0 | 0.0 | 0.00 | 0.15 | 0.00 | 97 | 1012.0 |
| 20260905130618 | 26 | 307 | 0.0 | 0.0 | 0.00 | 0.15 | 0.00 | 97 | 1012.0 |
| 20260905130520 | 26 | 307 | 0.0 | 0.0 | 0.00 | 0.15 | 0.00 | 97 | 1012.0 |
| 20260905130419 | 26 | 307 | 0.0 | 0.0 | 0.00 | 0.15 | 0.00 | 97 | 1012.0 |
| 20260905130319 | 26 | 307 | 0.0 | 0.0 | 0.00 | 0.15 | 0.00 | 97 | 1012.0 |
| 20260905130219 | 26 | 307 | 0.0 | 0.0 | 0.00 | 0.15 | 0.00 | 97 | 1012.0 |
| 20260905130118 | 26 | 307 | 0.0 | 0.0 | 0.00 | 0.15 | 0.00 | 97 | 1012.0 |
| 20260905130019 | 26 | 307 | 0.0 | 0.0 | 0.00 | 0.15 | 0.00 | 97 | 1012.0 |
| 20260905125918 | 26 | 307 | 0.0 | 0.0 | 0.00 | 0.15 | 0.00 | 97 | 1012.0 |
| 20260905125818 | 26 | 307 | 0.0 | 0.0 | 0.00 | 0.15 | 0.00 | 97 | 1012.0 |
| 20260905125718 | 26 | 307 | 0.0 | 0.0 | 0.00 | 0.15 | 0.00 | 97 | 1012.0 |
| 20260905125618 | 26 | 307 | 0.0 | 0.0 | 0.00 | 0.15 | 0.00 | 97 | 1012.0 |
| 20260905125517 | 26 | 307 | 0.0 | 0.0 | 0.00 | 0.15 | 0.00 | 97 | 1011.9 |
| 20260905125419 | 25 | 307 | 0.0 | 0.0 | 0.00 | 0.15 | 0.00 | 97 | 1011.9 |
| 20260905125317 | 25 | 307 | 0.0 | 0.0 | 0.00 | 0.15 | 0.00 | 97 | 1011.9 |
| 20260905125217 | 25 | 307 | 0.0 | 0.0 | 0.00 | 0.15 | 0.00 | 97 | 1011.9 |
| 20260905125118 | 25 | 307 | 0.0 | 0.0 | 0.00 | 0.15 | 0.00 | 97 | 1011.9 |
| 20260905125017 | 25 | 307 | 0.0 | 0.0 | 0.00 | 0.15 | 0.00 | 97 | 1011.9 |
| 20260905124917 | 25 | 196 | 0.0 | 0.0 | 0.00 | 0.15 | 0.00 | 97 | 1011.9 |
| 20260905124817 | 25 | 0 | 0.0 | 0.0 | 0.00 | 0.15 | 0.00 | 97 | 1011.9 |
| 20260905124718 | 25 | 274 | 0.0 | 0.0 | 0.00 | 0.15 | 0.00 | 97 | 1011.9 |
| 20260905124617 | 25 | 305 | 0.0 | 0.0 | 0.00 | 0.15 | 0.00 | 97 | 1011.9 |
| 20260905124517 | 25 | 306 | 0.0 | 0.0 | 0.00 | 0.15 | 0.00 | 97 | 1012.0 |
| 20260905124419 | 25 | 298 | 0.0 | 0.0 | 0.00 | 0.15 | 0.00 | 97 | 1012.0 |
| 20260905124317 | 25 | 306 | 0.0 | 0.0 | 0.00 | 0.15 | 0.00 | 97 | 1012.0 |
| 20260905124217 | 25 | 306 | 0.0 | 0.0 | 0.00 | 0.15 | 0.00 | 97 | 1011.9 |
| 20260905124117 | 25 | 307 | 0.0 | 0.0 | 0.00 | 0.15 | 0.00 | 97 | 1012.0 |
| 20260905124017 | 25 | 307 | 0.0 | 0.0 | 0.00 | 0.15 | 0.00 | 97 | 1012.0 |
| 20260905123918 | 25 | 307 | 0.0 | 0.0 | 0.00 | 0.15 | 0.00 | 97 | 1011.9 |
| 20260905123817 | 25 | 307 | 0.0 | 0.0 | 0.00 | 0.15 | 0.00 | 97 | 1011.9 |
| 20260905123719 | 25 | 307 | 0.0 | 0.0 | 0.00 | 0.15 | 0.00 | 97 | 1011.9 |
| 20260905123617 | 25 | 303 | 0.0 | 0.0 | 0.00 | 0.15 | 0.00 | 97 | 1011.9 |
| 20260905123519 | 25 | 306 | 0.0 | 0.0 | 0.00 | 0.15 | 0.00 | 97 | 1011.9 |
| 20260905123417 | 25 | 306 | 0.0 | 0.0 | 0.00 | 0.15 | 0.00 | 97 | 1011.8 |
| 20260905123317 | 25 | 306 | 0.0 | 0.0 | 0.00 | 0.15 | 0.00 | 97 | 1011.8 |
| 20260905123217 | 25 | 306 | 0.0 | 0.0 | 0.00 | 0.15 | 0.00 | 97 | 1011.8 |
| 20260905123117 | 25 | 306 | 0.0 | 0.0 | 0.00 | 0.15 | 0.00 | 97 | 1011.8 |
| 20260905123018 | 25 | 306 | 0.0 | 0.0 | 0.00 | 0.15 | 0.00 | 97 | 1011.8 |
| 20260905122918 | 25 | 305 | 0.0 | 0.0 | 0.00 | 0.15 | 0.00 | 97 | 1011.8 |
| 20260905122818 | 25 | 302 | 0.0 | 1.6 | 0.00 | 0.15 | 0.00 | 97 | 1011.8 |
| 20260905122718 | 25 | 286 | 0.0 | 3.2 | 0.00 | 0.15 | 0.00 | 97 | 1011.8 |
| 20260905122618 | 25 | 290 | 0.0 | 3.2 | 0.00 | 0.15 | 0.00 | 97 | 1011.8 |
| 20260905122517 | 25 | 295 | 0.0 | 3.2 | 0.00 | 0.15 | 0.00 | 97 | 1011.8 |
| 20260905122417 | 25 | 296 | 0.0 | 3.2 | 0.00 | 0.15 | 0.00 | 97 | 1011.8 |
| 20260905122319 | 25 | 296 | 0.0 | 3.2 | 0.00 | 0.15 | 0.00 | 97 | 1011.7 |
| 20260905122218 | 25 | 296 | 0.0 | 3.2 | 0.00 | 0.15 | 0.00 | 97 | 1011.7 |
| 20260905122117 | 25 | 296 | 0.0 | 3.2 | 0.00 | 0.15 | 0.00 | 97 | 1011.8 |
| 20260905122016 | 25 | 295 | 0.0 | 3.2 | 0.00 | 0.15 | 0.00 | 97 | 1011.7 |
| 20260905121917 | 25 | 295 | 1.6 | 3.2 | 0.00 | 0.15 | 0.00 | 97 | 1011.7 |
| 20260905121816 | 25 | 295 | 1.6 | 3.2 | 0.00 | 0.15 | 0.00 | 97 | 1011.6 |
| 20260905121718 | 25 | 295 | 0.0 | 3.2 | 0.00 | 0.15 | 0.00 | 97 | 1011.6 |
| 20260905121618 | 25 | 293 | 0.0 | 1.6 | 0.00 | 0.15 | 0.00 | 97 | 1011.7 |
| 20260905121517 | 25 | 295 | 0.0 | 1.6 | 0.00 | 0.15 | 0.00 | 97 | 1011.6 |
| 20260905121417 | 25 | 293 | 0.0 | 1.6 | 0.00 | 0.15 | 0.00 | 97 | 1011.6 |
| 20260905121316 | 25 | 293 | 0.0 | 1.6 | 0.00 | 0.15 | 0.00 | 97 | 1011.6 |
| 20260905121216 | 25 | 293 | 0.0 | 1.6 | 0.00 | 0.15 | 0.00 | 97 | 1011.7 |
| 20260905121117 | 25 | 293 | 0.0 | 1.6 | 0.00 | 0.15 | 0.00 | 97 | 1011.6 |
| 20260905121017 | 25 | 293 | 0.0 | 1.6 | 0.00 | 0.15 | 0.00 | 97 | 1011.6 |
| 20260905120918 | 25 | 293 | 0.0 | 1.6 | 0.00 | 0.15 | 0.00 | 97 | 1011.6 |
| 20260905120816 | 25 | 293 | 0.0 | 1.6 | 0.00 | 0.15 | 0.00 | 97 | 1011.6 |
| 20260905120716 | 25 | 293 | 0.0 | 1.6 | 0.00 | 0.15 | 0.00 | 97 | 1011.7 |
| 20260905120617 | 25 | 295 | 0.0 | 1.6 | 0.00 | 0.15 | 0.00 | 97 | 1011.6 |
| 20260905120516 | 25 | 295 | 0.0 | 0.0 | 0.00 | 0.15 | 0.00 | 97 | 1011.6 |
| 20260905120416 | 25 | 295 | 0.0 | 0.0 | 0.00 | 0.15 | 0.00 | 97 | 1011.5 |
| 20260905120316 | 25 | 295 | 0.0 | 0.0 | 0.00 | 0.15 | 0.00 | 97 | 1011.5 |
| 20260905120217 | 25 | 293 | 0.0 | 0.0 | 0.00 | 0.15 | 0.00 | 97 | 1011.5 |
| 20260905120117 | 25 | 295 | 0.0 | 0.0 | 0.00 | 0.15 | 0.00 | 97 | 1011.5 |
| 20260905120018 | 25 | 295 | 0.0 | 0.0 | 0.00 | 0.15 | 0.00 | 97 | 1011.5 |
| 20260905115916 | 25 | 295 | 0.0 | 0.0 | 0.00 | 0.15 | 0.00 | 97 | 1011.4 |
| 20260905115817 | 25 | 295 | 0.0 | 0.0 | 0.00 | 0.15 | 0.00 | 97 | 1011.4 |
| 20260905115717 | 25 | 295 | 0.0 | 0.0 | 0.00 | 0.15 | 0.00 | 97 | 1011.4 |
| 20260905115617 | 25 | 295 | 0.0 | 0.0 | 0.00 | 0.15 | 0.00 | 97 | 1011.4 |
| 20260905115518 | 25 | 295 | 0.0 | 0.0 | 0.00 | 0.15 | 0.00 | 97 | 1011.3 |
| 20260905115417 | 25 | 295 | 0.0 | 1.6 | 0.00 | 0.15 | 0.00 | 97 | 1011.3 |
| 20260905115316 | 25 | 295 | 0.0 | 1.6 | 0.00 | 0.15 | 0.00 | 97 | 1011.3 |
| 20260905115217 | 25 | 295 | 0.0 | 1.6 | 0.00 | 0.15 | 0.00 | 97 | 1011.3 |
| 20260905115117 | 25 | 295 | 0.0 | 1.6 | 0.00 | 0.15 | 0.00 | 97 | 1011.3 |
| 20260905115017 | 25 | 295 | 0.0 | 1.6 | 0.00 | 0.15 | 0.00 | 97 | 1011.3 |
| 20260905114916 | 25 | 295 | 0.0 | 3.2 | 0.00 | 0.15 | 0.00 | 97 | 1011.3 |
| 20260905114816 | 25 | 295 | 0.0 | 3.2 | 0.00 | 0.15 | 0.00 | 97 | 1011.3 |
| 20260905114716 | 25 | 295 | 0.0 | 3.2 | 0.00 | 0.15 | 0.00 | 97 | 1011.3 |
| 20260905114616 | 25 | 295 | 0.0 | 3.2 | 0.00 | 0.15 | 0.00 | 97 | 1011.2 |
| 20260905114518 | 25 | 295 | 0.0 | 3.2 | 0.00 | 0.15 | 0.00 | 97 | 1011.2 |
| 20260905114416 | 25 | 295 | 0.0 | 3.2 | 0.00 | 0.15 | 0.00 | 97 | 1011.2 |
| 20260905114315 | 25 | 295 | 0.0 | 3.2 | 0.00 | 0.15 | 0.00 | 97 | 1011.2 |
| 20260905114217 | 25 | 295 | 0.0 | 3.2 | 0.00 | 0.15 | 0.00 | 97 | 1011.2 |
| 20260905114117 | 25 | 295 | 1.6 | 3.2 | 0.00 | 0.15 | 0.00 | 97 | 1011.2 |
| 20260905114016 | 25 | 295 | 1.6 | 3.2 | 0.00 | 0.15 | 0.00 | 97 | 1011.1 |
| 20260905113916 | 25 | 295 | 1.6 | 3.2 | 0.00 | 0.15 | 0.00 | 97 | 1011.2 |
| 20260905113818 | 25 | 295 | 0.0 | 3.2 | 0.00 | 0.15 | 0.00 | 97 | 1011.2 |
| 20260905113716 | 25 | 197 | 0.0 | 0.0 | 0.00 | 0.15 | 0.00 | 97 | 1011.2 |
| 20260905113616 | 25 | 197 | 0.0 | 0.0 | 0.00 | 0.15 | 0.00 | 97 | 1011.2 |
| 20260905113516 | 25 | 197 | 0.0 | 0.0 | 0.00 | 0.15 | 0.00 | 97 | 1011.2 |
| 20260905113416 | 25 | 197 | 0.0 | 0.0 | 0.00 | 0.15 | 0.00 | 97 | 1011.2 |
| 20260905113317 | 25 | 197 | 0.0 | 0.0 | 0.00 | 0.15 | 0.00 | 97 | 1011.2 |
| 20260905113216 | 25 | 197 | 0.0 | 0.0 | 0.00 | 0.15 | 0.00 | 97 | 1011.2 |
| 20260905113116 | 25 | 197 | 0.0 | 0.0 | 0.00 | 0.15 | 0.00 | 97 | 1011.2 |
| 20260905113016 | 25 | 197 | 0.0 | 0.0 | 0.00 | 0.15 | 0.00 | 97 | 1011.1 |
| 20260905112916 | 25 | 199 | 0.0 | 0.0 | 0.00 | 0.15 | 0.00 | 97 | 1011.1 |
| 20260905112815 | 25 | 199 | 0.0 | 0.0 | 0.00 | 0.15 | 0.00 | 97 | 1011.0 |
| 20260905112715 | 25 | 199 | 0.0 | 0.0 | 0.00 | 0.15 | 0.00 | 97 | 1011.0 |
| 20260905112618 | 25 | 199 | 0.0 | 0.0 | 0.00 | 0.15 | 0.00 | 97 | 1011.0 |
| 20260905112516 | 25 | 199 | 0.0 | 0.0 | 0.00 | 0.15 | 0.00 | 97 | 1010.9 |
| 20260905112416 | 25 | 199 | 0.0 | 0.0 | 0.00 | 0.15 | 0.00 | 97 | 1010.9 |
| 20260905112316 | 25 | 200 | 0.0 | 0.0 | 0.00 | 0.15 | 0.00 | 97 | 1010.9 |
| 20260905112215 | 25 | 200 | 0.0 | 0.0 | 0.00 | 0.15 | 0.00 | 97 | 1010.9 |
| 20260905112116 | 25 | 200 | 0.0 | 0.0 | 0.00 | 0.15 | 0.00 | 97 | 1011.0 |
| 20260905112016 | 25 | 202 | 0.0 | 0.0 | 0.00 | 0.15 | 0.00 | 97 | 1011.0 |
| 20260905111915 | 25 | 202 | 0.0 | 0.0 | 0.00 | 0.15 | 0.00 | 97 | 1011.0 |
| 20260905111815 | 25 | 202 | 0.0 | 0.0 | 0.00 | 0.15 | 0.00 | 97 | 1010.9 |
| 20260905111717 | 25 | 202 | 0.0 | 0.0 | 0.00 | 0.15 | 0.00 | 97 | 1010.9 |
| 20260905111617 | 25 | 202 | 0.0 | 0.0 | 0.00 | 0.15 | 0.00 | 97 | 1010.9 |
| 20260905111517 | 25 | 202 | 0.0 | 0.0 | 0.00 | 0.15 | 0.00 | 97 | 1010.9 |
| 20260905111416 | 25 | 202 | 0.0 | 0.0 | 0.00 | 0.15 | 0.00 | 97 | 1010.8 |
| 20260905111316 | 25 | 202 | 0.0 | 0.0 | 0.00 | 0.15 | 0.00 | 97 | 1010.9 |
| 20260905111215 | 25 | 202 | 0.0 | 0.0 | 0.00 | 0.15 | 0.00 | 97 | 1010.9 |
| 20260905111115 | 25 | 202 | 0.0 | 0.0 | 0.00 | 0.15 | 0.00 | 97 | 1010.9 |
| 20260905111017 | 25 | 202 | 0.0 | 0.0 | 0.00 | 0.15 | 0.00 | 97 | 1010.9 |
| 20260905110915 | 25 | 202 | 0.0 | 0.0 | 0.00 | 0.15 | 0.00 | 97 | 1010.9 |
| 20260905110815 | 25 | 203 | 0.0 | 0.0 | 0.00 | 0.15 | 0.00 | 97 | 1011.0 |
| 20260905110716 | 25 | 203 | 0.0 | 0.0 | 0.00 | 0.15 | 0.00 | 97 | 1010.8 |
| 20260905110615 | 25 | 203 | 0.0 | 0.0 | 0.00 | 0.15 | 0.00 | 97 | 1010.9 |
| 20260905110515 | 25 | 203 | 0.0 | 0.0 | 0.00 | 0.15 | 0.00 | 97 | 1010.9 |
| 20260905110416 | 25 | 203 | 0.0 | 0.0 | 0.00 | 0.15 | 0.00 | 97 | 1010.9 |
| 20260905110317 | 25 | 203 | 0.0 | 0.0 | 0.00 | 0.15 | 0.00 | 97 | 1010.9 |
| 20260905110215 | 25 | 203 | 0.0 | 0.0 | 0.00 | 0.15 | 0.00 | 97 | 1010.9 |
| 20260905110116 | 25 | 203 | 0.0 | 0.0 | 0.00 | 0.15 | 0.00 | 97 | 1010.8 |
| 20260905110016 | 25 | 203 | 0.0 | 0.0 | 0.00 | 0.15 | 0.00 | 97 | 1010.9 |
| 20260905105915 | 25 | 203 | 0.0 | 0.0 | 0.00 | 0.15 | 0.00 | 97 | 1010.8 |
| 20260905105816 | 25 | 203 | 0.0 | 0.0 | 0.00 | 0.15 | 0.00 | 97 | 1010.8 |
| 20260905105716 | 25 | 203 | 0.0 | 0.0 | 0.00 | 0.15 | 0.00 | 97 | 1010.8 |
| 20260905105615 | 25 | 203 | 0.0 | 0.0 | 0.00 | 0.15 | 0.00 | 97 | 1010.8 |
| 20260905105514 | 25 | 203 | 0.0 | 0.0 | 0.00 | 0.15 | 0.00 | 97 | 1010.8 |
| 20260905105415 | 25 | 203 | 0.0 | 0.0 | 0.00 | 0.15 | 0.00 | 97 | 1010.8 |
| 20260905105317 | 25 | 203 | 0.0 | 0.0 | 0.00 | 0.15 | 0.00 | 97 | 1010.9 |
| 20260905105216 | 25 | 203 | 0.0 | 0.0 | 0.00 | 0.15 | 0.00 | 97 | 1010.9 |
| 20260905105114 | 25 | 203 | 0.0 | 0.0 | 0.00 | 0.15 | 0.00 | 97 | 1010.8 |
| 20260905105016 | 25 | 203 | 0.0 | 0.0 | 0.00 | 0.15 | 0.00 | 97 | 1010.9 |
| 20260905104916 | 25 | 203 | 0.0 | 0.0 | 0.00 | 0.15 | 0.00 | 97 | 1010.9 |
| 20260905104815 | 25 | 203 | 0.0 | 0.0 | 0.00 | 0.15 | 0.00 | 97 | 1010.9 |
| 20260905104714 | 25 | 203 | 0.0 | 0.0 | 0.00 | 0.15 | 0.00 | 97 | 1010.8 |
| 20260905104614 | 25 | 203 | 0.0 | 0.0 | 0.00 | 0.15 | 0.00 | 97 | 1010.9 |
| 20260905104511 | 25 | 203 | 0.0 | 0.0 | 0.00 | 0.15 | 0.00 | 97 | 1010.8 |
| 20260905104410 | 25 | 203 | 0.0 | 0.0 | 0.00 | 0.15 | 0.00 | 97 | 1010.9 |
| 20260905104307 | 25 | 203 | 0.0 | 0.0 | 0.00 | 0.15 | 0.00 | 97 | 1010.8 |
| 20260905104206 | 25 | 203 | 0.0 | 0.0 | 0.00 | 0.15 | 0.00 | 97 | 1010.8 |
| 20260905104104 | 25 | 203 | 0.0 | 0.0 | 0.00 | 0.15 | 0.00 | 97 | 1010.8 |
| 20260905104004 | 25 | 203 | 0.0 | 0.0 | 0.00 | 0.15 | 0.00 | 97 | 1010.8 |
| 20260905103902 | 25 | 203 | 0.0 | 0.0 | 0.00 | 0.15 | 0.00 | 97 | 1010.8 |
| 20260905103802 | 25 | 203 | 0.0 | 0.0 | 0.00 | 0.15 | 0.00 | 97 | 1010.8 |
| 20260905103701 | 25 | 203 | 0.0 | 0.0 | 0.00 | 0.15 | 0.00 | 97 | 1010.8 |
| 20260905103601 | 25 | 203 | 0.0 | 0.0 | 0.00 | 0.15 | 0.00 | 97 | 1010.8 |
| 20260905103502 | 25 | 203 | 0.0 | 0.0 | 0.00 | 0.15 | 0.00 | 97 | 1010.8 |
| 20260905103403 | 25 | 203 | 0.0 | 0.0 | 0.00 | 0.15 | 0.00 | 97 | 1010.8 |
| 20260905103301 | 25 | 203 | 0.0 | 0.0 | 0.00 | 0.15 | 0.00 | 97 | 1010.8 |
| 20260905103200 | 25 | 203 | 0.0 | 0.0 | 0.00 | 0.15 | 0.00 | 97 | 1010.9 |
| 20260905103058 | 25 | 203 | 0.0 | 0.0 | 0.00 | 0.15 | 0.00 | 97 | 1010.8 |
| 20260905102956 | 25 | 203 | 0.0 | 0.0 | 0.00 | 0.15 | 0.00 | 97 | 1010.9 |
| 20260905102855 | 25 | 203 | 0.0 | 0.0 | 0.00 | 0.15 | 0.00 | 97 | 1010.8 |
| 20260905102755 | 25 | 203 | 0.0 | 0.0 | 0.00 | 0.15 | 0.00 | 97 | 1010.8 |
| 20260905102652 | 25 | 203 | 0.0 | 0.0 | 0.00 | 0.15 | 0.00 | 97 | 1010.9 |
| 20260905102551 | 25 | 203 | 0.0 | 0.0 | 0.00 | 0.15 | 0.00 | 96 | 1010.8 |
| 20260905102450 | 25 | 203 | 0.0 | 0.0 | 0.00 | 0.15 | 0.00 | 96 | 1010.8 |
| 20260905102347 | 25 | 203 | 0.0 | 0.0 | 0.00 | 0.15 | 0.00 | 96 | 1010.8 |
| 20260905102247 | 25 | 203 | 0.0 | 0.0 | 0.00 | 0.15 | 0.00 | 96 | 1010.9 |
| 20260905102144 | 25 | 203 | 0.0 | 0.0 | 0.00 | 0.15 | 0.00 | 96 | 1010.9 |
| 20260905102043 | 25 | 203 | 0.0 | 0.0 | 0.00 | 0.15 | 0.00 | 96 | 1010.8 |
| 20260905101943 | 25 | 203 | 0.0 | 0.0 | 0.00 | 0.15 | 0.00 | 96 | 1010.8 |
| 20260905101841 | 25 | 203 | 0.0 | 0.0 | 0.00 | 0.15 | 0.00 | 97 | 1010.8 |
| 20260905101738 | 25 | 203 | 0.0 | 0.0 | 0.00 | 0.15 | 0.00 | 97 | 1010.9 |
| 20260905101638 | 25 | 203 | 0.0 | 0.0 | 0.00 | 0.15 | 0.00 | 97 | 1010.8 |
| 20260905101535 | 25 | 203 | 0.0 | 0.0 | 0.00 | 0.15 | 0.00 | 96 | 1010.8 |
| 20260905101435 | 25 | 203 | 0.0 | 0.0 | 0.00 | 0.15 | 0.00 | 97 | 1010.8 |
| 20260905101332 | 25 | 203 | 0.0 | 0.0 | 0.00 | 0.15 | 0.00 | 96 | 1010.7 |
| 20260905101232 | 25 | 204 | 0.0 | 0.0 | 0.00 | 0.15 | 0.00 | 96 | 1010.8 |
| 20260905101132 | 25 | 204 | 0.0 | 0.0 | 0.00 | 0.15 | 0.00 | 96 | 1010.8 |
| 20260905101031 | 25 | 204 | 0.0 | 0.0 | 0.00 | 0.15 | 0.00 | 96 | 1010.9 |
| 20260905100931 | 25 | 204 | 0.0 | 0.0 | 0.00 | 0.15 | 0.00 | 96 | 1010.8 |
| 20260905100831 | 25 | 204 | 0.0 | 0.0 | 0.00 | 0.15 | 0.00 | 96 | 1010.8 |
| 20260905100732 | 25 | 204 | 0.0 | 0.0 | 0.00 | 0.15 | 0.00 | 96 | 1010.9 |
| 20260905100631 | 25 | 204 | 0.0 | 0.0 | 0.00 | 0.15 | 0.00 | 96 | 1010.8 |
| 20260905100532 | 25 | 204 | 0.0 | 0.0 | 0.00 | 0.15 | 0.00 | 96 | 1010.8 |
| 20260905100432 | 25 | 204 | 0.0 | 0.0 | 0.00 | 0.15 | 0.00 | 96 | 1010.8 |
| 20260905100318 | 25 | 204 | 0.0 | 0.0 | 0.00 | 0.15 | 0.00 | 96 | 1010.8 |
| 20260905100214 | 25 | 204 | 0.0 | 0.0 | 0.00 | 0.15 | 0.00 | 96 | 1010.8 |
| 20260905100115 | 25 | 204 | 0.0 | 0.0 | 0.00 | 0.15 | 0.00 | 96 | 1010.8 |
| 20260905100015 | 25 | 204 | 0.0 | 0.0 | 0.00 | 0.15 | 0.00 | 96 | 1010.8 |
| 20260905095914 | 25 | 204 | 0.0 | 0.0 | 0.00 | 0.15 | 0.00 | 96 | 1010.8 |
| 20260905095813 | 25 | 204 | 0.0 | 0.0 | 0.00 | 0.15 | 0.00 | 97 | 1010.6 |
| 20260905095713 | 25 | 204 | 0.0 | 0.0 | 0.00 | 0.15 | 0.00 | 96 | 1010.8 |
| 20260905095613 | 25 | 204 | 0.0 | 0.0 | 0.00 | 0.15 | 0.00 | 96 | 1010.8 |
| 20260905095513 | 25 | 204 | 0.0 | 0.0 | 0.00 | 0.15 | 0.00 | 96 | 1010.8 |
| 20260905095415 | 25 | 204 | 0.0 | 0.0 | 0.00 | 0.15 | 0.00 | 96 | 1010.8 |
| 20260905095313 | 25 | 204 | 0.0 | 0.0 | 0.00 | 0.15 | 0.00 | 96 | 1010.8 |
| 20260905095213 | 25 | 204 | 0.0 | 0.0 | 0.00 | 0.15 | 0.00 | 96 | 1010.8 |
| 20260905095113 | 25 | 204 | 0.0 | 0.0 | 0.00 | 0.15 | 0.00 | 96 | 1010.8 |
| 20260905095014 | 25 | 204 | 0.0 | 0.0 | 0.00 | 0.15 | 0.00 | 96 | 1010.8 |
| 20260905094916 | 25 | 204 | 0.0 | 0.0 | 0.00 | 0.15 | 0.00 | 96 | 1010.8 |
| 20260905094814 | 25 | 204 | 0.0 | 0.0 | 0.00 | 0.15 | 0.00 | 96 | 1010.8 |
| 20260905094715 | 25 | 204 | 0.0 | 0.0 | 0.00 | 0.15 | 0.00 | 96 | 1010.8 |
| 20260905094614 | 25 | 204 | 0.0 | 0.0 | 0.00 | 0.15 | 0.00 | 96 | 1010.8 |
| 20260905094509 | 25 | 204 | 0.0 | 0.0 | 0.00 | 0.15 | 0.00 | 96 | 1010.8 |
| 20260905094406 | 25 | 204 | 0.0 | 0.0 | 0.00 | 0.15 | 0.00 | 96 | 1010.8 |
| 20260905094305 | 25 | 204 | 0.0 | 0.0 | 0.00 | 0.15 | 0.00 | 96 | 1010.7 |
| 20260905094203 | 25 | 204 | 0.0 | 0.0 | 0.00 | 0.15 | 0.00 | 96 | 1010.8 |
| 20260905094103 | 25 | 204 | 0.0 | 0.0 | 0.00 | 0.15 | 0.00 | 96 | 1010.8 |
| 20260905094004 | 25 | 204 | 0.0 | 0.0 | 0.00 | 0.15 | 0.00 | 96 | 1010.7 |
| 20260905093902 | 25 | 204 | 0.0 | 0.0 | 0.00 | 0.15 | 0.00 | 96 | 1010.8 |
| 20260905093802 | 25 | 204 | 0.0 | 0.0 | 0.00 | 0.15 | 0.00 | 96 | 1010.7 |
| 20260905093702 | 25 | 204 | 0.0 | 0.0 | 0.00 | 0.15 | 0.00 | 96 | 1010.7 |
| 20260905093603 | 25 | 204 | 0.0 | 0.0 | 0.00 | 0.15 | 0.00 | 96 | 1010.7 |
| 20260905093502 | 25 | 204 | 0.0 | 0.0 | 0.00 | 0.15 | 0.00 | 96 | 1010.7 |
| 20260905093401 | 25 | 204 | 0.0 | 0.0 | 0.00 | 0.15 | 0.00 | 96 | 1010.6 |
| 20260905093334 | 25 | 204 | 0.0 | 0.0 | 0.00 | 0.15 | 0.00 | 96 | 1010.7 |
| 20260905093203 | 25 | 204 | 0.0 | 0.0 | 0.00 | 0.15 | 0.00 | 96 | 1010.7 |
| 20260905093102 | 25 | 204 | 0.0 | 0.0 | 0.00 | 0.15 | 0.00 | 96 | 1010.7 |
| 20260905093002 | 25 | 204 | 0.0 | 0.0 | 0.00 | 0.15 | 0.00 | 96 | 1010.7 |
| 20260905092902 | 25 | 204 | 0.0 | 0.0 | 0.00 | 0.15 | 0.00 | 96 | 1010.7 |
| 20260905092804 | 25 | 204 | 0.0 | 0.0 | 0.00 | 0.15 | 0.00 | 96 | 1010.8 |
| 20260905092703 | 25 | 204 | 0.0 | 0.0 | 0.00 | 0.15 | 0.00 | 96 | 1010.7 |
| 20260905092603 | 25 | 204 | 0.0 | 0.0 | 0.00 | 0.15 | 0.00 | 96 | 1010.7 |
| 20260905092502 | 25 | 204 | 0.0 | 0.0 | 0.00 | 0.15 | 0.00 | 96 | 1010.7 |
| 20260905092401 | 25 | 204 | 0.0 | 0.0 | 0.00 | 0.15 | 0.00 | 96 | 1010.8 |
| 20260905092300 | 25 | 204 | 0.0 | 0.0 | 0.00 | 0.15 | 0.00 | 96 | 1010.7 |
| 20260905092200 | 25 | 204 | 0.0 | 0.0 | 0.00 | 0.15 | 0.00 | 96 | 1010.7 |
| 20260905092101 | 25 | 204 | 0.0 | 0.0 | 0.00 | 0.15 | 0.00 | 96 | 1010.8 |
| 20260905092001 | 25 | 204 | 0.0 | 0.0 | 0.00 | 0.15 | 0.00 | 96 | 1010.7 |
| 20260905091857 | 25 | 204 | 0.0 | 0.0 | 0.00 | 0.15 | 0.00 | 96 | 1010.8 |
| 20260905091756 | 25 | 204 | 0.0 | 0.0 | 0.00 | 0.15 | 0.00 | 96 | 1010.7 |
| 20260905091655 | 25 | 204 | 0.0 | 0.0 | 0.00 | 0.15 | 0.00 | 96 | 1010.8 |
| 20260905091554 | 25 | 204 | 0.0 | 0.0 | 0.00 | 0.15 | 0.00 | 96 | 1010.7 |
| 20260905091450 | 25 | 204 | 0.0 | 0.0 | 0.00 | 0.15 | 0.00 | 96 | 1010.7 |
| 20260905091351 | 25 | 204 | 0.0 | 0.0 | 0.00 | 0.15 | 0.00 | 96 | 1010.8 |
| 20260905091247 | 25 | 204 | 0.0 | 0.0 | 0.00 | 0.15 | 0.00 | 96 | 1010.8 |
| 20260905091147 | 25 | 204 | 0.0 | 0.0 | 0.00 | 0.15 | 0.00 | 96 | 1010.8 |
| 20260905091046 | 25 | 204 | 0.0 | 0.0 | 0.00 | 0.15 | 0.00 | 96 | 1010.8 |
| 20260905090944 | 25 | 204 | 0.0 | 0.0 | 0.00 | 0.15 | 0.00 | 96 | 1010.8 |
| 20260905090843 | 25 | 204 | 0.0 | 0.0 | 0.00 | 0.15 | 0.00 | 96 | 1010.8 |
| 20260905090741 | 25 | 204 | 0.0 | 0.0 | 0.00 | 0.15 | 0.00 | 96 | 1010.8 |
| 20260905090640 | 25 | 204 | 0.0 | 0.0 | 0.00 | 0.15 | 0.00 | 96 | 1010.8 |
| 20260905090538 | 25 | 204 | 0.0 | 0.0 | 0.00 | 0.15 | 0.00 | 96 | 1010.7 |
| 20260905090437 | 25 | 204 | 0.0 | 0.0 | 0.00 | 0.15 | 0.00 | 96 | 1010.8 |
| 20260905090332 | 25 | 204 | 0.0 | 0.0 | 0.00 | 0.15 | 0.00 | 96 | 1010.7 |
| 20260905090234 | 25 | 168 | 0.0 | 0.0 | 0.00 | 0.15 | 0.00 | 96 | 1010.7 |
| 20260905090132 | 25 | 168 | 0.0 | 0.0 | 0.00 | 0.15 | 0.00 | 96 | 1010.8 |
| 20260905090032 | 25 | 168 | 0.0 | 0.0 | 0.00 | 0.15 | 0.00 | 96 | 1010.7 |
| 20260905085932 | 25 | 168 | 0.0 | 0.0 | 0.00 | 0.15 | 0.00 | 96 | 1010.7 |
| 20260905085832 | 25 | 168 | 0.0 | 0.0 | 0.00 | 0.15 | 0.00 | 96 | 1010.7 |
| 20260905085731 | 25 | 168 | 0.0 | 0.0 | 0.00 | 0.15 | 0.00 | 96 | 1010.8 |
| 20260905085631 | 25 | 168 | 0.0 | 0.0 | 0.00 | 0.15 | 0.00 | 96 | 1010.7 |
| 20260905085531 | 25 | 168 | 0.0 | 0.0 | 0.00 | 0.15 | 0.00 | 96 | 1010.7 |
| 20260905085433 | 25 | 168 | 0.0 | 0.0 | 0.00 | 0.15 | 0.00 | 96 | 1010.8 |
| 20260905085331 | 25 | 168 | 0.0 | 0.0 | 0.00 | 0.15 | 0.00 | 96 | 1010.8 |
| 20260905085232 | 25 | 168 | 0.0 | 0.0 | 0.00 | 0.15 | 0.00 | 96 | 1010.7 |
| 20260905085133 | 25 | 168 | 0.0 | 0.0 | 0.00 | 0.15 | 0.00 | 96 | 1010.8 |
| 20260905085032 | 25 | 168 | 0.0 | 0.0 | 0.00 | 0.15 | 0.00 | 96 | 1010.8 |
| 20260905084931 | 25 | 168 | 0.0 | 0.0 | 0.00 | 0.15 | 0.00 | 96 | 1010.8 |
| 20260905084832 | 25 | 168 | 0.0 | 1.6 | 0.00 | 0.15 | 0.00 | 96 | 1010.8 |
| 20260905084732 | 25 | 168 | 0.0 | 1.6 | 0.00 | 0.15 | 0.00 | 96 | 1010.8 |
| 20260905084630 | 25 | 168 | 0.0 | 3.2 | 0.00 | 0.15 | 0.00 | 96 | 1010.8 |
| 20260905084532 | 25 | 168 | 0.0 | 3.2 | 0.00 | 0.15 | 0.00 | 96 | 1010.8 |
| 20260905084432 | 25 | 168 | 0.0 | 3.2 | 0.00 | 0.15 | 0.00 | 96 | 1010.8 |
| 20260905084330 | 25 | 168 | 0.0 | 3.2 | 0.00 | 0.15 | 0.00 | 96 | 1010.7 |
| 20260905084228 | 25 | 168 | 0.0 | 3.2 | 0.00 | 0.15 | 0.00 | 96 | 1010.7 |
| 20260905084127 | 25 | 168 | 0.0 | 3.2 | 0.00 | 0.15 | 0.00 | 96 | 1010.6 |
| 20260905084027 | 25 | 168 | 0.0 | 3.2 | 0.00 | 0.15 | 0.00 | 95 | 1010.7 |
| 20260905083926 | 25 | 168 | 0.0 | 3.2 | 0.00 | 0.15 | 0.00 | 95 | 1010.6 |
| 20260905083824 | 25 | 168 | 1.6 | 3.2 | 0.00 | 0.15 | 0.00 | 95 | 1010.6 |
| 20260905083721 | 25 | 168 | 1.6 | 3.2 | 0.00 | 0.15 | 0.00 | 95 | 1010.6 |
| 20260905083621 | 25 | 168 | 1.6 | 3.2 | 0.00 | 0.15 | 0.00 | 95 | 1010.5 |
| 20260905083519 | 25 | 168 | 1.6 | 3.2 | 0.00 | 0.15 | 0.00 | 95 | 1010.6 |
| 20260905083415 | 25 | 168 | 0.0 | 1.6 | 0.00 | 0.15 | 0.00 | 95 | 1010.6 |
| 20260905083312 | 25 | 168 | 0.0 | 0.0 | 0.00 | 0.15 | 0.00 | 95 | 1010.6 |
| 20260905083211 | 25 | 168 | 0.0 | 0.0 | 0.00 | 0.15 | 0.00 | 95 | 1010.5 |
| 20260905083113 | 25 | 168 | 0.0 | 0.0 | 0.00 | 0.15 | 0.00 | 95 | 1010.5 |
| 20260905083013 | 25 | 168 | 0.0 | 0.0 | 0.00 | 0.15 | 0.00 | 95 | 1010.4 |
| 20260905082912 | 25 | 168 | 0.0 | 0.0 | 0.00 | 0.15 | 0.00 | 95 | 1010.4 |
| 20260905082811 | 25 | 168 | 0.0 | 0.0 | 0.00 | 0.15 | 0.00 | 95 | 1010.4 |
| 20260905082713 | 26 | 168 | 0.0 | 0.0 | 0.00 | 0.15 | 0.00 | 95 | 1010.4 |
| 20260905082611 | 26 | 169 | 0.0 | 0.0 | 0.00 | 0.15 | 0.00 | 95 | 1010.4 |
| 20260905082511 | 26 | 168 | 0.0 | 0.0 | 0.00 | 0.15 | 0.00 | 95 | 1010.3 |
| 20260905082413 | 26 | 168 | 0.0 | 0.0 | 0.00 | 0.15 | 0.00 | 95 | 1010.4 |
| 20260905082311 | 26 | 168 | 0.0 | 0.0 | 0.00 | 0.15 | 0.00 | 95 | 1010.4 |
| 20260905082212 | 26 | 168 | 0.0 | 0.0 | 0.00 | 0.15 | 0.00 | 95 | 1010.4 |
| 20260905082112 | 26 | 169 | 0.0 | 0.0 | 0.00 | 0.15 | 0.00 | 95 | 1010.4 |
| 20260905082012 | 26 | 169 | 0.0 | 0.0 | 0.00 | 0.15 | 0.00 | 95 | 1010.5 |
| 20260905081911 | 26 | 169 | 0.0 | 0.0 | 0.00 | 0.15 | 0.00 | 95 | 1010.4 |
| 20260905081814 | 26 | 169 | 0.0 | 0.0 | 0.00 | 0.15 | 0.00 | 95 | 1010.4 |
| 20260905081712 | 26 | 169 | 0.0 | 0.0 | 0.00 | 0.15 | 0.00 | 95 | 1010.4 |
| 20260905081612 | 26 | 169 | 0.0 | 0.0 | 0.00 | 0.15 | 0.00 | 95 | 1010.5 |
| 20260905081512 | 26 | 169 | 0.0 | 0.0 | 0.00 | 0.15 | 0.00 | 95 | 1010.4 |
| 20260905081412 | 26 | 169 | 0.0 | 0.0 | 0.00 | 0.15 | 0.00 | 95 | 1010.4 |
| 20260905081312 | 26 | 169 | 0.0 | 0.0 | 0.00 | 0.15 | 0.00 | 95 | 1010.5 |
| 20260905081211 | 26 | 169 | 0.0 | 0.0 | 0.00 | 0.15 | 0.00 | 95 | 1010.5 |
| 20260905081111 | 26 | 169 | 0.0 | 0.0 | 0.00 | 0.15 | 0.00 | 95 | 1010.5 |
| 20260905081012 | 26 | 169 | 0.0 | 0.0 | 0.00 | 0.15 | 0.00 | 95 | 1010.5 |
| 20260905080911 | 26 | 169 | 0.0 | 0.0 | 0.00 | 0.15 | 0.00 | 95 | 1010.5 |
| 20260905080813 | 26 | 169 | 0.0 | 0.0 | 0.00 | 0.15 | 0.00 | 95 | 1010.6 |
| 20260905080714 | 26 | 169 | 0.0 | 0.0 | 0.00 | 0.15 | 0.00 | 95 | 1010.5 |
| 20260905080611 | 26 | 169 | 0.0 | 0.0 | 0.00 | 0.15 | 0.00 | 95 | 1010.6 |
| 20260905080512 | 26 | 169 | 0.0 | 0.0 | 0.00 | 0.15 | 0.00 | 95 | 1010.6 |
| 20260905080413 | 26 | 169 | 0.0 | 0.0 | 0.00 | 0.15 | 0.00 | 95 | 1010.6 |
| 20260905080312 | 26 | 169 | 0.0 | 0.0 | 0.00 | 0.15 | 0.00 | 95 | 1010.5 |
| 20260905080212 | 26 | 169 | 0.0 | 0.0 | 0.00 | 0.15 | 0.00 | 95 | 1010.6 |
| 20260905080112 | 26 | 169 | 0.0 | 0.0 | 0.00 | 0.15 | 0.00 | 95 | 1010.6 |
| 20260905080012 | 26 | 169 | 0.0 | 0.0 | 0.00 | 0.15 | 0.00 | 95 | 1010.5 |
| 20260905075913 | 26 | 169 | 0.0 | 0.0 | 0.00 | 0.15 | 0.00 | 95 | 1010.4 |
| 20260905075811 | 26 | 169 | 0.0 | 0.0 | 0.00 | 0.15 | 0.00 | 95 | 1010.5 |
| 20260905075711 | 26 | 169 | 0.0 | 0.0 | 0.00 | 0.15 | 0.00 | 95 | 1010.5 |
| 20260905075613 | 26 | 169 | 0.0 | 0.0 | 0.00 | 0.15 | 0.00 | 95 | 1010.5 |
| 20260905075510 | 26 | 169 | 0.0 | 0.0 | 0.00 | 0.15 | 0.00 | 95 | 1010.5 |
| 20260905075412 | 26 | 169 | 0.0 | 0.0 | 0.00 | 0.15 | 0.00 | 95 | 1010.5 |
| 20260905075312 | 26 | 169 | 0.0 | 0.0 | 0.00 | 0.15 | 0.00 | 95 | 1010.6 |
| 20260905075212 | 26 | 169 | 0.0 | 0.0 | 0.00 | 0.15 | 0.00 | 95 | 1010.5 |
| 20260905075111 | 26 | 169 | 0.0 | 0.0 | 0.00 | 0.15 | 0.00 | 95 | 1010.5 |
| 20260905075011 | 26 | 169 | 0.0 | 0.0 | 0.00 | 0.15 | 0.00 | 95 | 1010.6 |
| 20260905074913 | 26 | 169 | 0.0 | 0.0 | 0.00 | 0.15 | 0.00 | 95 | 1010.6 |
| 20260905074811 | 26 | 169 | 0.0 | 0.0 | 0.00 | 0.15 | 0.00 | 95 | 1010.5 |
| 20260905074710 | 26 | 169 | 0.0 | 0.0 | 0.00 | 0.15 | 0.00 | 95 | 1010.5 |
| 20260905074610 | 26 | 169 | 0.0 | 0.0 | 0.00 | 0.15 | 0.00 | 94 | 1010.5 |
| 20260905074511 | 26 | 169 | 0.0 | 0.0 | 0.00 | 0.15 | 0.00 | 94 | 1010.5 |
| 20260905074410 | 26 | 169 | 0.0 | 0.0 | 0.00 | 0.15 | 0.00 | 94 | 1010.5 |
| 20260905074310 | 26 | 169 | 0.0 | 0.0 | 0.00 | 0.15 | 0.00 | 94 | 1010.6 |
| 20260905074211 | 26 | 169 | 0.0 | 0.0 | 0.00 | 0.15 | 0.00 | 94 | 1010.6 |
| 20260905074110 | 26 | 169 | 0.0 | 0.0 | 0.00 | 0.15 | 0.00 | 94 | 1010.6 |
| 20260905074010 | 26 | 169 | 0.0 | 0.0 | 0.00 | 0.15 | 0.00 | 94 | 1010.7 |
| 20260905073912 | 26 | 169 | 0.0 | 0.0 | 0.00 | 0.15 | 0.00 | 95 | 1010.6 |
| 20260905073811 | 26 | 169 | 0.0 | 0.0 | 0.00 | 0.15 | 0.00 | 94 | 1010.6 |
| 20260905073710 | 26 | 169 | 0.0 | 0.0 | 0.00 | 0.15 | 0.00 | 94 | 1010.5 |
| 20260905073610 | 26 | 169 | 0.0 | 0.0 | 0.00 | 0.15 | 0.00 | 94 | 1010.6 |
| 20260905073511 | 26 | 169 | 0.0 | 0.0 | 0.00 | 0.15 | 0.00 | 94 | 1010.6 |
| 20260905073411 | 26 | 169 | 0.0 | 0.0 | 0.00 | 0.15 | 0.00 | 94 | 1010.6 |
| 20260905073311 | 26 | 169 | 0.0 | 0.0 | 0.00 | 0.15 | 0.00 | 94 | 1010.6 |
| 20260905073211 | 26 | 169 | 0.0 | 0.0 | 0.00 | 0.15 | 0.00 | 94 | 1010.6 |
| 20260905073110 | 26 | 169 | 0.0 | 0.0 | 0.00 | 0.15 | 0.00 | 94 | 1010.7 |
| 20260905073010 | 26 | 169 | 0.0 | 0.0 | 0.00 | 0.15 | 0.00 | 94 | 1010.7 |
| 20260905072911 | 26 | 169 | 0.0 | 0.0 | 0.00 | 0.15 | 0.00 | 94 | 1010.8 |
| 20260905072811 | 26 | 169 | 0.0 | 0.0 | 0.00 | 0.15 | 0.00 | 94 | 1010.8 |
| 20260905072710 | 26 | 169 | 0.0 | 0.0 | 0.00 | 0.15 | 0.00 | 94 | 1010.8 |
| 20260905072610 | 26 | 169 | 0.0 | 0.0 | 0.00 | 0.15 | 0.00 | 94 | 1010.8 |
| 20260905072511 | 26 | 169 | 0.0 | 0.0 | 0.00 | 0.15 | 0.00 | 94 | 1010.8 |
| 20260905072411 | 26 | 169 | 0.0 | 0.0 | 0.00 | 0.15 | 0.00 | 94 | 1010.8 |
| 20260905072311 | 26 | 169 | 0.0 | 0.0 | 0.00 | 0.15 | 0.00 | 94 | 1010.8 |
| 20260905072211 | 26 | 169 | 0.0 | 0.0 | 0.00 | 0.15 | 0.00 | 94 | 1010.8 |
| 20260905072110 | 26 | 169 | 0.0 | 0.0 | 0.00 | 0.15 | 0.00 | 94 | 1010.9 |
| 20260905072010 | 26 | 169 | 0.0 | 0.0 | 0.00 | 0.15 | 0.00 | 94 | 1010.9 |
| 20260905071910 | 26 | 169 | 0.0 | 0.0 | 0.00 | 0.15 | 0.00 | 94 | 1011.0 |
| 20260905071811 | 26 | 169 | 0.0 | 0.0 | 0.00 | 0.15 | 0.00 | 94 | 1010.9 |
| 20260905071710 | 26 | 169 | 0.0 | 0.0 | 0.00 | 0.15 | 0.00 | 94 | 1010.9 |
| 20260905071610 | 26 | 169 | 0.0 | 0.0 | 0.00 | 0.15 | 0.00 | 94 | 1011.0 |
| 20260905071511 | 26 | 169 | 0.0 | 0.0 | 0.00 | 0.15 | 0.00 | 94 | 1011.0 |
| 20260905071410 | 26 | 169 | 0.0 | 0.0 | 0.00 | 0.15 | 0.00 | 94 | 1011.0 |
| 20260905071310 | 26 | 169 | 0.0 | 0.0 | 0.00 | 0.15 | 0.00 | 94 | 1011.0 |
| 20260905071209 | 26 | 169 | 0.0 | 0.0 | 0.00 | 0.15 | 0.00 | 94 | 1011.0 |
| 20260905071111 | 26 | 169 | 0.0 | 0.0 | 0.00 | 0.15 | 0.00 | 94 | 1011.0 |
| 20260905071011 | 26 | 169 | 0.0 | 0.0 | 0.00 | 0.15 | 0.00 | 94 | 1011.1 |
| 20260905070910 | 26 | 169 | 0.0 | 0.0 | 0.00 | 0.15 | 0.00 | 94 | 1011.0 |
| 20260905070811 | 26 | 169 | 0.0 | 0.0 | 0.00 | 0.15 | 0.00 | 94 | 1011.0 |
| 20260905070711 | 26 | 169 | 0.0 | 0.0 | 0.00 | 0.15 | 0.00 | 94 | 1011.1 |
| 20260905070611 | 26 | 169 | 0.0 | 0.0 | 0.00 | 0.15 | 0.00 | 94 | 1011.1 |
| 20260905070510 | 26 | 169 | 0.0 | 0.0 | 0.00 | 0.15 | 0.00 | 94 | 1011.0 |
| 20260905070411 | 26 | 169 | 0.0 | 0.0 | 0.00 | 0.15 | 0.00 | 94 | 1011.0 |
| 20260905070311 | 26 | 169 | 0.0 | 0.0 | 0.00 | 0.15 | 0.00 | 94 | 1011.0 |
| 20260905070209 | 26 | 169 | 0.0 | 0.0 | 0.00 | 0.15 | 0.00 | 94 | 1011.1 |
| 20260905070109 | 26 | 169 | 0.0 | 0.0 | 0.00 | 0.15 | 0.00 | 93 | 1011.1 |
| 20260905070011 | 26 | 169 | 0.0 | 0.0 | 0.00 | 0.15 | 0.00 | 93 | 1011.1 |
| 20260905065910 | 26 | 169 | 0.0 | 0.0 | 0.00 | 0.15 | 0.00 | 93 | 1011.1 |
| 20260905065810 | 26 | 169 | 0.0 | 0.0 | 0.00 | 0.15 | 0.00 | 93 | 1011.1 |
| 20260905065711 | 26 | 169 | 0.0 | 0.0 | 0.00 | 0.15 | 0.00 | 93 | 1011.1 |
| 20260905065609 | 26 | 169 | 0.0 | 0.0 | 0.00 | 0.15 | 0.00 | 93 | 1011.1 |
| 20260905065509 | 26 | 169 | 0.0 | 0.0 | 0.00 | 0.15 | 0.00 | 93 | 1011.1 |
| 20260905065410 | 26 | 169 | 0.0 | 0.0 | 0.00 | 0.15 | 0.00 | 93 | 1011.1 |
| 20260905065310 | 26 | 169 | 0.0 | 0.0 | 0.00 | 0.15 | 0.00 | 93 | 1011.2 |
| 20260905065210 | 26 | 169 | 0.0 | 0.0 | 0.00 | 0.15 | 0.00 | 93 | 1011.2 |
| 20260905065110 | 26 | 169 | 0.0 | 0.0 | 0.00 | 0.15 | 0.00 | 93 | 1011.2 |
| 20260905065010 | 26 | 169 | 0.0 | 0.0 | 0.00 | 0.15 | 0.00 | 93 | 1011.1 |
| 20260905064910 | 26 | 169 | 0.0 | 0.0 | 0.00 | 0.15 | 0.00 | 93 | 1011.1 |
| 20260905064810 | 26 | 169 | 0.0 | 0.0 | 0.00 | 0.15 | 0.00 | 93 | 1011.1 |
| 20260905064710 | 26 | 169 | 0.0 | 0.0 | 0.00 | 0.15 | 0.00 | 93 | 1011.2 |
| 20260905064609 | 26 | 169 | 0.0 | 0.0 | 0.00 | 0.15 | 0.00 | 93 | 1011.1 |
| 20260905064509 | 26 | 169 | 0.0 | 0.0 | 0.00 | 0.15 | 0.00 | 93 | 1011.2 |
| 20260905064409 | 26 | 169 | 0.0 | 0.0 | 0.00 | 0.15 | 0.00 | 93 | 1011.1 |
| 20260905064311 | 26 | 169 | 0.0 | 0.0 | 0.00 | 0.15 | 0.00 | 93 | 1011.1 |
| 20260905064209 | 26 | 169 | 0.0 | 0.0 | 0.00 | 0.15 | 0.00 | 93 | 1011.2 |
| 20260905064110 | 26 | 169 | 0.0 | 0.0 | 0.00 | 0.15 | 0.00 | 93 | 1011.3 |
| 20260905064011 | 26 | 169 | 0.0 | 0.0 | 0.00 | 0.15 | 0.00 | 93 | 1011.2 |
| 20260905063909 | 26 | 169 | 0.0 | 0.0 | 0.00 | 0.15 | 0.00 | 93 | 1011.3 |
| 20260905063809 | 26 | 169 | 0.0 | 0.0 | 0.00 | 0.15 | 0.00 | 93 | 1011.3 |
| 20260905063709 | 26 | 169 | 0.0 | 0.0 | 0.00 | 0.15 | 0.00 | 93 | 1011.2 |
| 20260905063610 | 26 | 169 | 0.0 | 0.0 | 0.00 | 0.15 | 0.00 | 93 | 1011.2 |
| 20260905063509 | 26 | 169 | 0.0 | 0.0 | 0.00 | 0.15 | 0.00 | 93 | 1011.2 |
| 20260905063409 | 26 | 169 | 0.0 | 0.0 | 0.00 | 0.15 | 0.00 | 92 | 1011.2 |
| 20260905063310 | 26 | 169 | 0.0 | 0.0 | 0.00 | 0.15 | 0.00 | 92 | 1011.2 |
| 20260905063210 | 26 | 169 | 0.0 | 0.0 | 0.00 | 0.15 | 0.00 | 92 | 1011.3 |
| 20260905063110 | 26 | 169 | 0.0 | 0.0 | 0.00 | 0.15 | 0.00 | 92 | 1011.3 |
| 20260905063011 | 26 | 169 | 0.0 | 0.0 | 0.00 | 0.15 | 0.00 | 92 | 1011.3 |
| 20260905062910 | 26 | 169 | 0.0 | 0.0 | 0.00 | 0.15 | 0.00 | 92 | 1011.3 |
| 20260905062809 | 26 | 169 | 0.0 | 0.0 | 0.00 | 0.15 | 0.00 | 92 | 1011.3 |
| 20260905062708 | 26 | 169 | 0.0 | 0.0 | 0.00 | 0.15 | 0.00 | 92 | 1011.4 |
| 20260905062610 | 26 | 169 | 0.0 | 0.0 | 0.00 | 0.15 | 0.00 | 92 | 1011.4 |
| 20260905062510 | 26 | 169 | 0.0 | 0.0 | 0.00 | 0.15 | 0.00 | 92 | 1011.3 |
| 20260905062408 | 26 | 169 | 0.0 | 0.0 | 0.00 | 0.15 | 0.00 | 92 | 1011.3 |
| 20260905062306 | 26 | 169 | 0.0 | 0.0 | 0.00 | 0.15 | 0.00 | 92 | 1011.4 |
| 20260905062205 | 26 | 169 | 0.0 | 0.0 | 0.00 | 0.15 | 0.00 | 92 | 1011.3 |
| 20260905062104 | 26 | 157 | 0.0 | 0.0 | 0.00 | 0.15 | 0.00 | 92 | 1011.4 |
| 20260905062003 | 26 | 164 | 0.0 | 0.0 | 0.00 | 0.15 | 0.00 | 92 | 1011.4 |
| 20260905061902 | 27 | 165 | 0.0 | 0.0 | 0.00 | 0.15 | 0.00 | 92 | 1011.4 |
| 20260905061803 | 27 | 165 | 0.0 | 0.0 | 0.00 | 0.15 | 0.00 | 92 | 1011.3 |
| 20260905061702 | 27 | 166 | 0.0 | 0.0 | 0.00 | 0.15 | 0.00 | 92 | 1011.3 |
| 20260905061604 | 27 | 166 | 0.0 | 0.0 | 0.00 | 0.15 | 0.00 | 91 | 1011.3 |
| 20260905061504 | 27 | 166 | 0.0 | 0.0 | 0.00 | 0.15 | 0.00 | 91 | 1011.3 |
| 20260905061402 | 27 | 168 | 0.0 | 0.0 | 0.00 | 0.15 | 0.00 | 91 | 1011.3 |
| 20260905061303 | 27 | 168 | 0.0 | 0.0 | 0.00 | 0.15 | 0.00 | 91 | 1011.3 |
| 20260905061202 | 27 | 168 | 0.0 | 0.0 | 0.00 | 0.15 | 0.00 | 91 | 1011.4 |
| 20260905061102 | 27 | 168 | 0.0 | 0.0 | 0.00 | 0.15 | 0.00 | 91 | 1011.3 |
| 20260905061004 | 27 | 168 | 0.0 | 0.0 | 0.00 | 0.15 | 0.00 | 91 | 1011.5 |
| 20260905060901 | 27 | 168 | 0.0 | 0.0 | 0.00 | 0.15 | 0.00 | 91 | 1011.4 |
| 20260905060803 | 27 | 168 | 0.0 | 0.0 | 0.00 | 0.15 | 0.00 | 91 | 1011.4 |
| 20260905060703 | 27 | 168 | 0.0 | 0.0 | 0.00 | 0.15 | 0.00 | 91 | 1011.4 |
| 20260905060602 | 27 | 168 | 0.0 | 0.0 | 0.00 | 0.15 | 0.00 | 91 | 1011.4 |
| 20260905060502 | 27 | 168 | 0.0 | 0.0 | 0.00 | 0.15 | 0.00 | 91 | 1011.4 |
| 20260905060403 | 27 | 168 | 0.0 | 0.0 | 0.00 | 0.15 | 0.00 | 91 | 1011.5 |
| 20260905060303 | 27 | 168 | 0.0 | 0.0 | 0.00 | 0.15 | 0.00 | 91 | 1011.3 |
| 20260905060202 | 27 | 168 | 0.0 | 0.0 | 0.00 | 0.15 | 0.00 | 91 | 1011.3 |
| 20260905060002 | 27 | 168 | 0.0 | 0.0 | 0.00 | 0.15 | 0.00 | 91 | 1011.4 |
| 20260905055903 | 27 | 169 | 0.0 | 0.0 | 0.00 | 0.15 | 0.00 | 90 | 1011.2 |
| 20260905055803 | 27 | 169 | 0.0 | 0.0 | 0.00 | 0.15 | 0.00 | 90 | 1011.3 |
| 20260905055702 | 27 | 169 | 0.0 | 0.0 | 0.00 | 0.15 | 0.00 | 90 | 1011.3 |
| 20260905055602 | 27 | 169 | 0.0 | 0.0 | 0.00 | 0.15 | 0.00 | 90 | 1011.3 |
| 20260905055502 | 27 | 169 | 0.0 | 3.2 | 0.00 | 0.15 | 0.00 | 90 | 1011.3 |
| 20260905055402 | 27 | 169 | 0.0 | 3.2 | 0.00 | 0.15 | 0.00 | 90 | 1011.3 |
| 20260905055306 | 27 | 169 | 0.0 | 3.2 | 0.00 | 0.15 | 0.00 | 90 | 1011.3 |
| 20260905055202 | 27 | 169 | 0.0 | 3.2 | 0.00 | 0.15 | 0.00 | 90 | 1011.3 |
| 20260905055103 | 27 | 169 | 0.0 | 3.2 | 0.00 | 0.15 | 0.00 | 90 | 1011.3 |
| 20260905055004 | 27 | 169 | 0.0 | 3.2 | 0.00 | 0.15 | 0.00 | 90 | 1011.3 |
| 20260905054903 | 27 | 169 | 0.0 | 3.2 | 0.00 | 0.15 | 0.00 | 90 | 1011.3 |
| 20260905054802 | 27 | 169 | 0.0 | 3.2 | 0.00 | 0.15 | 0.00 | 90 | 1011.3 |
| 20260905054704 | 27 | 169 | 0.0 | 3.2 | 0.00 | 0.15 | 0.00 | 90 | 1011.3 |
| 20260905054602 | 27 | 169 | 0.0 | 3.2 | 0.00 | 0.15 | 0.00 | 90 | 1011.3 |
| 20260905054502 | 27 | 169 | 0.0 | 3.2 | 0.00 | 0.15 | 0.00 | 90 | 1011.3 |
| 20260905054403 | 27 | 169 | 0.0 | 3.2 | 0.00 | 0.15 | 0.00 | 90 | 1011.3 |
| 20260905054301 | 27 | 169 | 0.0 | 3.2 | 0.00 | 0.15 | 0.00 | 90 | 1011.3 |
| 20260905054201 | 27 | 169 | 0.0 | 3.2 | 0.00 | 0.15 | 0.00 | 90 | 1011.3 |
| 20260905054104 | 27 | 169 | 0.0 | 4.8 | 0.00 | 0.15 | 0.00 | 90 | 1011.3 |
| 20260905054005 | 27 | 169 | 0.0 | 4.8 | 0.00 | 0.15 | 0.00 | 89 | 1011.3 |
| 20260905053903 | 27 | 169 | 0.0 | 4.8 | 0.00 | 0.15 | 0.00 | 90 | 1011.4 |
| 20260905053803 | 27 | 169 | 0.0 | 4.8 | 0.00 | 0.15 | 0.00 | 89 | 1011.3 |
| 20260905053703 | 27 | 169 | 0.0 | 4.8 | 0.00 | 0.15 | 0.00 | 89 | 1011.3 |
| 20260905053603 | 27 | 169 | 0.0 | 4.8 | 0.00 | 0.15 | 0.00 | 89 | 1011.3 |
| 20260905053504 | 27 | 169 | 0.0 | 4.8 | 0.00 | 0.15 | 0.00 | 89 | 1011.3 |
| 20260905053403 | 27 | 169 | 0.0 | 4.8 | 0.00 | 0.15 | 0.00 | 89 | 1011.3 |
| 20260905053302 | 27 | 169 | 1.6 | 6.4 | 0.00 | 0.15 | 0.00 | 89 | 1011.4 |
| 20260905053202 | 27 | 169 | 3.2 | 6.4 | 0.00 | 0.15 | 0.00 | 89 | 1011.3 |
| 20260905053103 | 27 | 172 | 1.6 | 6.4 | 0.00 | 0.15 | 0.00 | 89 | 1011.4 |
| 20260905053004 | 27 | 172 | 1.6 | 6.4 | 0.00 | 0.15 | 0.00 | 89 | 1011.4 |
| 20260905052902 | 27 | 175 | 3.2 | 6.4 | 0.00 | 0.15 | 0.00 | 89 | 1011.4 |
| 20260905052802 | 27 | 180 | 1.6 | 6.4 | 0.00 | 0.15 | 0.00 | 89 | 1011.4 |
| 20260905052704 | 27 | 182 | 3.2 | 6.4 | 0.00 | 0.15 | 0.00 | 89 | 1011.3 |
| 20260905052602 | 27 | 171 | 3.2 | 6.4 | 0.00 | 0.15 | 0.00 | 89 | 1011.4 |
| 20260905052502 | 27 | 195 | 3.2 | 6.4 | 0.00 | 0.15 | 0.00 | 89 | 1011.3 |
| 20260905052402 | 27 | 190 | 3.2 | 6.4 | 0.00 | 0.15 | 0.00 | 89 | 1011.4 |
| 20260905052306 | 27 | 178 | 4.8 | 6.4 | 0.00 | 0.15 | 0.00 | 89 | 1011.4 |
| 20260905052202 | 27 | 189 | 3.2 | 6.4 | 0.00 | 0.15 | 0.00 | 89 | 1011.4 |
| 20260905052102 | 27 | 179 | 3.2 | 6.4 | 0.00 | 0.15 | 0.00 | 89 | 1011.4 |
| 20260905052004 | 27 | 189 | 3.2 | 6.4 | 0.00 | 0.15 | 0.00 | 89 | 1011.5 |
| 20260905051902 | 27 | 183 | 3.2 | 6.4 | 0.00 | 0.15 | 0.00 | 89 | 1011.4 |
| 20260905051802 | 27 | 179 | 0.0 | 4.8 | 0.00 | 0.15 | 0.00 | 89 | 1011.4 |
| 20260905051702 | 27 | 188 | 0.0 | 8.0 | 0.00 | 0.15 | 0.00 | 89 | 1011.4 |
| 20260905051602 | 27 | 188 | 1.6 | 8.0 | 0.00 | 0.15 | 0.00 | 89 | 1011.4 |
| 20260905051502 | 27 | 195 | 3.2 | 8.0 | 0.00 | 0.15 | 0.00 | 89 | 1011.5 |
| 20260905051402 | 27 | 195 | 3.2 | 8.0 | 0.00 | 0.15 | 0.00 | 89 | 1011.5 |
| 20260905051303 | 27 | 195 | 1.6 | 8.0 | 0.00 | 0.15 | 0.00 | 89 | 1011.4 |
| 20260905051202 | 27 | 195 | 1.6 | 8.0 | 0.00 | 0.15 | 0.00 | 89 | 1011.4 |
| 20260905051102 | 27 | 195 | 1.6 | 8.0 | 0.00 | 0.15 | 0.00 | 89 | 1011.4 |
| 20260905051003 | 27 | 193 | 1.6 | 8.0 | 0.00 | 0.15 | 0.00 | 89 | 1011.3 |
| 20260905050903 | 27 | 195 | 3.2 | 8.0 | 0.00 | 0.15 | 0.00 | 89 | 1011.4 |
| 20260905050802 | 27 | 195 | 4.8 | 8.0 | 0.00 | 0.15 | 0.00 | 89 | 1011.4 |
| 20260905050702 | 27 | 193 | 4.8 | 8.0 | 0.00 | 0.15 | 0.00 | 89 | 1011.4 |
| 20260905050603 | 27 | 195 | 4.8 | 8.0 | 0.00 | 0.15 | 0.00 | 89 | 1011.3 |
| 20260905050502 | 27 | 204 | 4.8 | 6.4 | 0.00 | 0.15 | 0.00 | 89 | 1011.4 |
| 20260905050402 | 27 | 206 | 3.2 | 8.0 | 0.00 | 0.15 | 0.00 | 89 | 1011.3 |
| 20260905050303 | 27 | 199 | 1.6 | 8.0 | 0.00 | 0.15 | 0.00 | 88 | 1011.4 |
| 20260905050202 | 27 | 199 | 1.6 | 8.0 | 0.00 | 0.15 | 0.00 | 88 | 1011.3 |
| 20260905050003 | 27 | 185 | 1.6 | 8.0 | 0.00 | 0.15 | 0.00 | 88 | 1011.3 |
| 20260905045903 | 27 | 185 | 1.6 | 8.0 | 0.00 | 0.15 | 0.15 | 88 | 1011.3 |
| 20260905045802 | 27 | 182 | 1.6 | 8.0 | 0.00 | 0.15 | 0.15 | 88 | 1011.3 |
| 20260905045702 | 27 | 202 | 1.6 | 8.0 | 0.00 | 0.15 | 0.15 | 88 | 1011.3 |
| 20260905045604 | 27 | 202 | 3.2 | 8.0 | 0.00 | 0.15 | 0.15 | 88 | 1011.2 |
| 20260905045502 | 27 | 203 | 4.8 | 8.0 | 0.00 | 0.15 | 0.15 | 88 | 1011.2 |
| 20260905045403 | 27 | 180 | 4.8 | 8.0 | 0.00 | 0.15 | 0.15 | 88 | 1011.3 |
| 20260905045305 | 27 | 188 | 4.8 | 8.0 | 0.00 | 0.15 | 0.15 | 88 | 1011.3 |
| 20260905045202 | 27 | 193 | 4.8 | 8.0 | 0.00 | 0.15 | 0.15 | 88 | 1011.3 |
| 20260905045102 | 27 | 149 | 4.8 | 8.0 | 0.00 | 0.15 | 0.15 | 88 | 1011.2 |
| 20260905044959 | 27 | 200 | 3.2 | 8.0 | 0.00 | 0.15 | 0.15 | 88 | 1011.2 |
| 20260905044858 | 27 | 192 | 4.8 | 8.0 | 0.00 | 0.15 | 0.15 | 88 | 1011.2 |
| 20260905044756 | 27 | 182 | 3.2 | 8.0 | 0.00 | 0.15 | 0.15 | 88 | 1011.3 |
| 20260905044655 | 27 | 169 | 3.2 | 8.0 | 0.00 | 0.15 | 0.15 | 88 | 1011.1 |
| 20260905044554 | 27 | 188 | 3.2 | 8.0 | 0.00 | 0.15 | 0.15 | 88 | 1011.2 |
| 20260905044452 | 27 | 123 | 3.2 | 8.0 | 0.00 | 0.15 | 0.15 | 88 | 1011.3 |
| 20260905044350 | 27 | 180 | 3.2 | 9.7 | 0.00 | 0.15 | 0.15 | 88 | 1011.2 |
| 20260905044248 | 28 | 193 | 0.0 | 9.7 | 0.00 | 0.15 | 0.15 | 88 | 1011.2 |
| 20260905044147 | 28 | 216 | 3.2 | 9.7 | 0.00 | 0.15 | 0.15 | 88 | 1011.2 |
| 20260905044046 | 28 | 168 | 3.2 | 9.7 | 0.00 | 0.15 | 0.15 | 88 | 1011.3 |
| 20260905043943 | 28 | 179 | 3.2 | 9.7 | 0.00 | 0.15 | 0.15 | 88 | 1011.2 |
| 20260905043842 | 28 | 165 | 3.2 | 9.7 | 0.00 | 0.15 | 0.15 | 88 | 1011.3 |
| 20260905043737 | 27 | 168 | 3.2 | 9.7 | 0.00 | 0.15 | 0.15 | 88 | 1011.3 |
| 20260905043637 | 27 | 157 | 4.8 | 9.7 | 0.00 | 0.15 | 0.15 | 88 | 1011.2 |
| 20260905043535 | 27 | 116 | 3.2 | 9.7 | 0.00 | 0.15 | 0.15 | 88 | 1011.3 |
| 20260905043433 | 27 | 142 | 3.2 | 9.7 | 0.00 | 0.15 | 0.15 | 88 | 1011.3 |
| 20260905043330 | 27 | 141 | 3.2 | 9.7 | 0.00 | 0.15 | 0.15 | 88 | 1011.3 |
| 20260905043232 | 28 | 135 | 6.4 | 9.7 | 0.00 | 0.15 | 0.15 | 88 | 1011.3 |
| 20260905043132 | 28 | 176 | 4.8 | 9.7 | 0.00 | 0.15 | 0.15 | 88 | 1011.3 |
| 20260905043031 | 28 | 149 | 3.2 | 9.7 | 0.00 | 0.15 | 0.15 | 88 | 1011.4 |
| 20260905042931 | 28 | 161 | 3.2 | 9.7 | 0.00 | 0.15 | 0.15 | 88 | 1011.3 |
| 20260905042832 | 28 | 157 | 3.2 | 9.7 | 0.00 | 0.15 | 0.15 | 87 | 1011.4 |
| 20260905042731 | 28 | 165 | 3.2 | 9.7 | 0.00 | 0.15 | 0.15 | 87 | 1011.3 |
| 20260905042631 | 28 | 121 | 3.2 | 9.7 | 0.00 | 0.15 | 0.15 | 87 | 1011.4 |
| 20260905042531 | 28 | 180 | 4.8 | 9.7 | 0.00 | 0.15 | 0.15 | 87 | 1011.3 |
| 20260905042431 | 28 | 152 | 4.8 | 9.7 | 0.00 | 0.15 | 0.15 | 88 | 1011.2 |
| 20260905042331 | 28 | 193 | 3.2 | 8.0 | 0.00 | 0.15 | 0.15 | 87 | 1011.4 |
| 20260905042231 | 28 | 171 | 3.2 | 8.0 | 0.00 | 0.15 | 0.15 | 87 | 1011.3 |
| 20260905042132 | 28 | 178 | 3.2 | 8.0 | 0.00 | 0.15 | 0.15 | 87 | 1011.4 |
| 20260905042031 | 28 | 172 | 3.2 | 8.0 | 0.00 | 0.15 | 0.15 | 87 | 1011.4 |
| 20260905041931 | 28 | 196 | 3.2 | 8.0 | 0.00 | 0.15 | 0.15 | 87 | 1011.4 |
| 20260905041831 | 28 | 171 | 3.2 | 8.0 | 0.00 | 0.15 | 0.15 | 87 | 1011.4 |
| 20260905041732 | 28 | 149 | 3.2 | 8.0 | 0.00 | 0.15 | 0.15 | 87 | 1011.4 |
| 20260905041631 | 28 | 193 | 3.2 | 6.4 | 0.00 | 0.15 | 0.15 | 87 | 1011.5 |
| 20260905041531 | 28 | 147 | 3.2 | 6.4 | 0.00 | 0.15 | 0.15 | 87 | 1011.5 |
| 20260905041431 | 28 | 128 | 3.2 | 6.4 | 0.00 | 0.15 | 0.15 | 87 | 1011.5 |
| 20260905041331 | 27 | 128 | 1.6 | 6.4 | 0.00 | 0.15 | 0.15 | 87 | 1011.5 |
| 20260905041231 | 28 | 138 | 3.2 | 9.7 | 0.00 | 0.15 | 0.15 | 87 | 1011.5 |
| 20260905041132 | 28 | 137 | 3.2 | 9.7 | 0.00 | 0.15 | 0.15 | 87 | 1011.5 |
| 20260905041031 | 28 | 166 | 3.2 | 9.7 | 0.00 | 0.15 | 0.15 | 87 | 1011.5 |
| 20260905040932 | 28 | 157 | 3.2 | 9.7 | 0.00 | 0.15 | 0.15 | 87 | 1011.5 |
| 20260905040831 | 28 | 172 | 3.2 | 9.7 | 0.00 | 0.15 | 0.15 | 87 | 1011.5 |
| 20260905040732 | 28 | 142 | 3.2 | 9.7 | 0.00 | 0.15 | 0.15 | 87 | 1011.5 |
| 20260905040631 | 28 | 175 | 3.2 | 9.7 | 0.00 | 0.15 | 0.15 | 87 | 1011.5 |
| 20260905040531 | 28 | 121 | 3.2 | 9.7 | 0.00 | 0.15 | 0.15 | 87 | 1011.6 |
| 20260905040432 | 28 | 161 | 3.2 | 9.7 | 0.00 | 0.15 | 0.15 | 87 | 1011.5 |
| 20260905040332 | 28 | 149 | 3.2 | 9.7 | 0.00 | 0.15 | 0.15 | 87 | 1011.5 |
| 20260905040232 | 28 | 140 | 1.6 | 8.0 | 0.00 | 0.15 | 0.15 | 87 | 1011.5 |
| 20260905040131 | 28 | 131 | 1.6 | 8.0 | 0.00 | 0.15 | 0.15 | 87 | 1011.6 |
| 20260905040033 | 28 | 159 | 3.2 | 8.0 | 0.00 | 0.15 | 0.15 | 87 | 1011.5 |
| 20260905035933 | 28 | 147 | 1.6 | 8.0 | 0.00 | 0.15 | 0.15 | 87 | 1011.6 |
| 20260905035832 | 28 | 145 | 3.2 | 8.0 | 0.00 | 0.15 | 0.15 | 87 | 1011.6 |
| 20260905035733 | 28 | 188 | 3.2 | 8.0 | 0.00 | 0.15 | 0.15 | 87 | 1011.5 |
| 20260905035631 | 28 | 149 | 1.6 | 8.0 | 0.00 | 0.15 | 0.15 | 87 | 1011.6 |
| 20260905035531 | 28 | 164 | 3.2 | 8.0 | 0.00 | 0.15 | 0.15 | 87 | 1011.6 |
| 20260905035432 | 28 | 206 | 4.8 | 8.0 | 0.00 | 0.15 | 0.15 | 87 | 1011.6 |
| 20260905035332 | 28 | 171 | 3.2 | 6.4 | 0.00 | 0.15 | 0.15 | 87 | 1011.7 |
| 20260905035233 | 28 | 189 | 4.8 | 6.4 | 0.00 | 0.15 | 0.15 | 87 | 1011.6 |
| 20260905035133 | 28 | 157 | 3.2 | 6.4 | 0.00 | 0.15 | 0.15 | 87 | 1011.7 |
| 20260905035030 | 28 | 121 | 3.2 | 6.4 | 0.00 | 0.15 | 0.15 | 87 | 1011.7 |
| 20260905034931 | 28 | 159 | 3.2 | 6.4 | 0.00 | 0.15 | 0.15 | 87 | 1011.7 |
| 20260905034832 | 28 | 134 | 3.2 | 6.4 | 0.00 | 0.15 | 0.15 | 87 | 1011.7 |
| 20260905034732 | 28 | 141 | 3.2 | 6.4 | 0.00 | 0.15 | 0.15 | 87 | 1011.7 |
| 20260905034632 | 28 | 130 | 3.2 | 6.4 | 0.00 | 0.15 | 0.15 | 87 | 1011.7 |
| 20260905034532 | 28 | 145 | 3.2 | 6.4 | 0.00 | 0.15 | 0.15 | 87 | 1011.6 |
| 20260905034431 | 28 | 137 | 3.2 | 6.4 | 0.00 | 0.15 | 0.15 | 87 | 1011.6 |
| 20260905034333 | 28 | 140 | 3.2 | 6.4 | 0.00 | 0.15 | 0.15 | 87 | 1011.5 |
| 20260905034232 | 28 | 169 | 3.2 | 6.4 | 0.00 | 0.15 | 0.15 | 87 | 1011.6 |
| 20260905034131 | 28 | 166 | 1.6 | 6.4 | 0.00 | 0.15 | 0.15 | 87 | 1011.5 |
| 20260905034032 | 28 | 135 | 1.6 | 6.4 | 0.00 | 0.15 | 0.15 | 87 | 1011.5 |
| 20260905033931 | 28 | 134 | 1.6 | 6.4 | 0.00 | 0.15 | 0.15 | 87 | 1011.5 |
| 20260905033829 | 28 | 111 | 0.0 | 4.8 | 0.00 | 0.15 | 0.15 | 87 | 1011.6 |
| 20260905033728 | 28 | 111 | 0.0 | 4.8 | 0.00 | 0.15 | 0.15 | 87 | 1011.6 |
| 20260905033628 | 28 | 111 | 1.6 | 4.8 | 0.00 | 0.15 | 0.15 | 87 | 1011.6 |
| 20260905033523 | 28 | 111 | 3.2 | 4.8 | 0.00 | 0.15 | 0.15 | 87 | 1011.6 |
| 20260905033423 | 28 | 111 | 1.6 | 4.8 | 0.00 | 0.15 | 0.15 | 87 | 1011.6 |
| 20260905033322 | 28 | 111 | 1.6 | 4.8 | 0.00 | 0.15 | 0.15 | 87 | 1011.6 |
| 20260905033221 | 28 | 111 | 0.0 | 4.8 | 0.00 | 0.15 | 0.15 | 87 | 1011.6 |
| 20260905033115 | 28 | 111 | 1.6 | 4.8 | 0.00 | 0.15 | 0.15 | 87 | 1011.6 |
| 20260905033014 | 28 | 111 | 1.6 | 4.8 | 0.00 | 0.15 | 0.15 | 87 | 1011.6 |
| 20260905032913 | 28 | 111 | 1.6 | 4.8 | 0.00 | 0.15 | 0.15 | 87 | 1011.6 |
| 20260905032811 | 28 | 111 | 1.6 | 4.8 | 0.00 | 0.15 | 0.15 | 87 | 1011.6 |
| 20260905032709 | 28 | 111 | 3.2 | 4.8 | 0.00 | 0.15 | 0.15 | 87 | 1011.7 |
| 20260905032609 | 28 | 110 | 1.6 | 4.8 | 0.00 | 0.15 | 0.15 | 87 | 1011.7 |
| 20260905032507 | 28 | 94 | 0.0 | 4.8 | 0.00 | 0.15 | 0.15 | 87 | 1011.7 |
| 20260905032405 | 28 | 94 | 1.6 | 4.8 | 0.00 | 0.15 | 0.15 | 87 | 1011.7 |
| 20260905032306 | 28 | 94 | 1.6 | 4.8 | 0.00 | 0.15 | 0.15 | 87 | 1011.7 |
| 20260905032206 | 28 | 94 | 1.6 | 4.8 | 0.00 | 0.15 | 0.15 | 87 | 1011.8 |
| 20260905032104 | 28 | 92 | 1.6 | 4.8 | 0.00 | 0.15 | 0.15 | 87 | 1011.8 |
| 20260905032004 | 28 | 92 | 3.2 | 4.8 | 0.00 | 0.15 | 0.15 | 87 | 1011.8 |
| 20260905031904 | 28 | 89 | 1.6 | 3.2 | 0.00 | 0.15 | 0.15 | 87 | 1011.7 |
| 20260905031804 | 28 | 89 | 1.6 | 3.2 | 0.00 | 0.15 | 0.15 | 87 | 1011.7 |
| 20260905031704 | 28 | 89 | 1.6 | 3.2 | 0.00 | 0.15 | 0.15 | 87 | 1011.7 |
| 20260905031605 | 28 | 89 | 1.6 | 3.2 | 0.00 | 0.15 | 0.15 | 87 | 1011.8 |
| 20260905031506 | 27 | 89 | 1.6 | 3.2 | 0.00 | 0.15 | 0.15 | 87 | 1011.7 |
| 20260905031404 | 27 | 89 | 0.0 | 1.6 | 0.00 | 0.15 | 0.15 | 87 | 1011.6 |
| 20260905031304 | 27 | 87 | 0.0 | 1.6 | 0.00 | 0.15 | 0.15 | 87 | 1011.6 |
| 20260905031205 | 27 | 87 | 0.0 | 1.6 | 0.00 | 0.15 | 0.15 | 87 | 1011.6 |
| 20260905031104 | 27 | 87 | 0.0 | 1.6 | 0.00 | 0.15 | 0.15 | 87 | 1011.7 |
| 20260905031005 | 27 | 87 | 0.0 | 1.6 | 0.00 | 0.15 | 0.15 | 87 | 1011.7 |
| 20260905030904 | 27 | 87 | 0.0 | 1.6 | 0.00 | 0.15 | 0.15 | 87 | 1011.6 |
| 20260905030804 | 27 | 87 | 0.0 | 1.6 | 0.00 | 0.15 | 0.15 | 87 | 1011.7 |
| 20260905030704 | 27 | 87 | 0.0 | 1.6 | 0.00 | 0.15 | 0.15 | 87 | 1011.7 |
| 20260905030604 | 28 | 87 | 0.0 | 1.6 | 0.00 | 0.15 | 0.15 | 87 | 1011.7 |
| 20260905030504 | 28 | 87 | 0.0 | 3.2 | 0.00 | 0.15 | 0.15 | 87 | 1011.7 |
| 20260905030404 | 28 | 87 | 0.0 | 3.2 | 0.00 | 0.15 | 0.15 | 87 | 1011.7 |
| 20260905030304 | 28 | 87 | 0.0 | 3.2 | 0.00 | 0.15 | 0.15 | 86 | 1011.6 |
| 20260905030204 | 28 | 35 | 0.0 | 3.2 | 0.00 | 0.15 | 0.15 | 86 | 1011.7 |
| 20260905030104 | 28 | 35 | 0.0 | 3.2 | 0.00 | 0.15 | 0.15 | 86 | 1011.6 |
| 20260905030005 | 28 | 35 | 0.0 | 3.2 | 0.00 | 0.15 | 0.15 | 86 | 1011.5 |
| 20260905025904 | 28 | 35 | 0.0 | 3.2 | 0.00 | 0.15 | 0.15 | 86 | 1011.6 |
| 20260905025806 | 28 | 35 | 0.0 | 3.2 | 0.00 | 0.15 | 0.15 | 86 | 1011.6 |
| 20260905025704 | 28 | 35 | 0.0 | 3.2 | 0.03 | 0.15 | 0.15 | 86 | 1011.6 |
| 20260905025604 | 28 | 35 | 1.6 | 3.2 | 0.03 | 0.15 | 0.15 | 85 | 1011.6 |
| 20260905025504 | 28 | 35 | 0.0 | 3.2 | 0.03 | 0.15 | 0.15 | 86 | 1011.6 |
| 20260905025406 | 28 | 35 | 0.0 | 3.2 | 0.03 | 0.15 | 0.15 | 85 | 1011.5 |
| 20260905025306 | 28 | 35 | 0.0 | 3.2 | 0.03 | 0.15 | 0.15 | 86 | 1011.6 |
| 20260905025204 | 28 | 35 | 1.6 | 3.2 | 0.03 | 0.15 | 0.15 | 85 | 1011.6 |
| 20260905025105 | 28 | 35 | 1.6 | 3.2 | 0.03 | 0.15 | 0.15 | 85 | 1011.6 |
| 20260905025006 | 28 | 35 | 1.6 | 3.2 | 0.03 | 0.15 | 0.15 | 85 | 1011.6 |
| 20260905024904 | 28 | 35 | 0.0 | 3.2 | 0.03 | 0.15 | 0.15 | 85 | 1011.6 |
| 20260905024806 | 28 | 37 | 0.0 | 4.8 | 0.03 | 0.15 | 0.15 | 85 | 1011.6 |
| 20260905024704 | 28 | 38 | 0.0 | 4.8 | 0.03 | 0.15 | 0.15 | 84 | 1011.6 |
| 20260905024603 | 28 | 39 | 0.0 | 6.4 | 0.03 | 0.15 | 0.15 | 84 | 1011.5 |
| 20260905024506 | 28 | 41 | 0.0 | 6.4 | 0.03 | 0.15 | 0.15 | 83 | 1011.5 |
| 20260905024404 | 28 | 39 | 0.0 | 6.4 | 0.03 | 0.15 | 0.15 | 83 | 1011.4 |
| 20260905024304 | 28 | 39 | 0.0 | 6.4 | 0.03 | 0.15 | 0.15 | 83 | 1011.4 |
| 20260905024204 | 28 | 41 | 1.6 | 6.4 | 0.03 | 0.15 | 0.15 | 83 | 1011.4 |
| 20260905024104 | 28 | 41 | 1.6 | 6.4 | 0.03 | 0.15 | 0.15 | 83 | 1011.4 |
| 20260905024004 | 28 | 41 | 1.6 | 6.4 | 0.03 | 0.15 | 0.15 | 83 | 1011.4 |
| 20260905023903 | 28 | 41 | 3.2 | 6.4 | 0.03 | 0.15 | 0.15 | 83 | 1011.4 |
| 20260905023804 | 28 | 41 | 3.2 | 6.4 | 0.03 | 0.15 | 0.15 | 83 | 1011.4 |
| 20260905023704 | 28 | 39 | 4.8 | 6.4 | 0.03 | 0.15 | 0.15 | 83 | 1011.4 |
| 20260905023604 | 28 | 41 | 3.2 | 6.4 | 0.03 | 0.15 | 0.15 | 83 | 1011.3 |
| 20260905023505 | 28 | 41 | 3.2 | 6.4 | 0.03 | 0.15 | 0.15 | 83 | 1011.4 |
| 20260905023405 | 28 | 41 | 3.2 | 6.4 | 0.03 | 0.15 | 0.15 | 83 | 1011.4 |
| 20260905023304 | 28 | 41 | 3.2 | 6.4 | 0.03 | 0.15 | 0.15 | 83 | 1011.3 |
| 20260905023203 | 28 | 41 | 3.2 | 6.4 | 0.03 | 0.15 | 0.15 | 83 | 1011.3 |
| 20260905023103 | 28 | 42 | 3.2 | 6.4 | 0.03 | 0.15 | 0.15 | 83 | 1011.3 |
| 20260905023005 | 28 | 42 | 1.6 | 6.4 | 0.03 | 0.15 | 0.15 | 83 | 1011.3 |
| 20260905022904 | 28 | 42 | 0.0 | 6.4 | 0.03 | 0.15 | 0.15 | 82 | 1011.3 |
| 20260905022803 | 28 | 42 | 0.0 | 6.4 | 0.03 | 0.15 | 0.15 | 82 | 1011.3 |
| 20260905022705 | 28 | 42 | 0.0 | 6.4 | 0.03 | 0.15 | 0.15 | 82 | 1011.3 |
| 20260905022603 | 28 | 44 | 3.2 | 6.4 | 0.03 | 0.15 | 0.15 | 82 | 1011.3 |
| 20260905022504 | 28 | 42 | 3.2 | 6.4 | 0.03 | 0.15 | 0.15 | 82 | 1011.3 |
| 20260905022403 | 29 | 42 | 4.8 | 6.4 | 0.03 | 0.15 | 0.15 | 82 | 1011.3 |
| 20260905022306 | 29 | 44 | 4.8 | 6.4 | 0.03 | 0.15 | 0.15 | 82 | 1011.3 |
| 20260905022204 | 29 | 48 | 3.2 | 6.4 | 0.03 | 0.15 | 0.15 | 82 | 1011.2 |
| 20260905022103 | 29 | 39 | 4.8 | 6.4 | 0.03 | 0.15 | 0.15 | 81 | 1011.2 |
| 20260905022004 | 29 | 68 | 4.8 | 6.4 | 0.03 | 0.15 | 0.15 | 81 | 1011.2 |
| 20260905021904 | 29 | 51 | 4.8 | 8.0 | 0.03 | 0.15 | 0.15 | 81 | 1011.2 |
| 20260905021804 | 29 | 51 | 3.2 | 8.0 | 0.03 | 0.15 | 0.15 | 81 | 1011.2 |
| 20260905021703 | 29 | 52 | 3.2 | 8.0 | 0.03 | 0.15 | 0.15 | 81 | 1011.2 |
| 20260905021603 | 29 | 51 | 3.2 | 8.0 | 0.03 | 0.15 | 0.15 | 81 | 1011.2 |
| 20260905021504 | 29 | 52 | 3.2 | 8.0 | 0.03 | 0.15 | 0.15 | 81 | 1011.3 |
| 20260905021403 | 29 | 52 | 3.2 | 8.0 | 0.03 | 0.15 | 0.15 | 81 | 1011.2 |
| 20260905021304 | 29 | 52 | 3.2 | 8.0 | 0.03 | 0.15 | 0.15 | 81 | 1011.3 |
| 20260905021204 | 29 | 52 | 4.8 | 8.0 | 0.03 | 0.15 | 0.15 | 81 | 1011.2 |
| 20260905021103 | 29 | 51 | 4.8 | 9.7 | 0.03 | 0.15 | 0.15 | 81 | 1011.2 |
| 20260905021004 | 29 | 51 | 4.8 | 9.7 | 0.03 | 0.15 | 0.15 | 81 | 1011.2 |
| 20260905020904 | 29 | 56 | 3.2 | 9.7 | 0.03 | 0.15 | 0.15 | 81 | 1011.2 |
| 20260905020803 | 29 | 59 | 4.8 | 9.7 | 0.03 | 0.15 | 0.15 | 80 | 1011.2 |
| 20260905020703 | 29 | 59 | 4.8 | 9.7 | 0.03 | 0.15 | 0.15 | 80 | 1011.2 |
| 20260905020603 | 29 | 59 | 4.8 | 9.7 | 0.03 | 0.15 | 0.15 | 80 | 1011.2 |
| 20260905020504 | 29 | 59 | 4.8 | 9.7 | 0.03 | 0.15 | 0.15 | 80 | 1011.2 |
| 20260905020402 | 29 | 59 | 4.8 | 9.7 | 0.03 | 0.15 | 0.15 | 80 | 1011.1 |
| 20260905020302 | 29 | 59 | 6.4 | 9.7 | 0.03 | 0.15 | 0.15 | 80 | 1011.0 |
| 20260905020204 | 29 | 61 | 6.4 | 9.7 | 0.03 | 0.15 | 0.15 | 80 | 1011.1 |
| 20260905020104 | 29 | 59 | 4.8 | 9.7 | 0.03 | 0.15 | 0.15 | 80 | 1011.0 |
| 20260905020002 | 29 | 59 | 6.4 | 9.7 | 0.03 | 0.13 | 0.15 | 80 | 1011.0 |
| 20260905015903 | 29 | 62 | 8.0 | 9.7 | 0.03 | 0.13 | 0.15 | 80 | 1011.0 |
| 20260905015803 | 29 | 58 | 6.4 | 8.0 | 0.03 | 0.13 | 0.13 | 80 | 1011.1 |
| 20260905015703 | 29 | 61 | 6.4 | 8.0 | 0.00 | 0.13 | 0.13 | 80 | 1011.0 |
| 20260905015603 | 29 | 63 | 4.8 | 8.0 | 0.00 | 0.13 | 0.13 | 80 | 1011.0 |
| 20260905015504 | 29 | 52 | 4.8 | 8.0 | 0.00 | 0.13 | 0.13 | 80 | 1011.0 |
| 20260905015402 | 29 | 49 | 4.8 | 8.0 | 0.00 | 0.13 | 0.13 | 80 | 1010.9 |
| 20260905015306 | 29 | 55 | 4.8 | 8.0 | 0.00 | 0.13 | 0.13 | 80 | 1010.9 |
| 20260905015203 | 29 | 52 | 6.4 | 8.0 | 0.00 | 0.13 | 0.13 | 80 | 1010.9 |
| 20260905015102 | 29 | 56 | 4.8 | 8.0 | 0.00 | 0.13 | 0.13 | 80 | 1010.9 |
| 20260905015004 | 29 | 61 | 4.8 | 8.0 | 0.00 | 0.13 | 0.13 | 80 | 1010.9 |
| 20260905014902 | 29 | 61 | 6.4 | 8.0 | 0.00 | 0.13 | 0.13 | 80 | 1010.9 |
| 20260905014803 | 29 | 58 | 6.4 | 8.0 | 0.00 | 0.13 | 0.13 | 80 | 1010.9 |
| 20260905014702 | 29 | 62 | 6.4 | 8.0 | 0.00 | 0.13 | 0.13 | 80 | 1010.9 |
| 20260905014601 | 29 | 56 | 4.8 | 8.0 | 0.00 | 0.13 | 0.13 | 80 | 1010.8 |
| 20260905014500 | 29 | 55 | 4.8 | 8.0 | 0.00 | 0.13 | 0.13 | 80 | 1010.9 |
| 20260905014358 | 29 | 55 | 4.8 | 8.0 | 0.00 | 0.13 | 0.13 | 80 | 1010.9 |
| 20260905014258 | 29 | 58 | 4.8 | 8.0 | 0.00 | 0.13 | 0.13 | 80 | 1010.9 |
| 20260905014155 | 29 | 56 | 4.8 | 8.0 | 0.00 | 0.13 | 0.13 | 80 | 1010.9 |
| 20260905014056 | 29 | 59 | 6.4 | 8.0 | 0.00 | 0.13 | 0.13 | 80 | 1010.9 |
| 20260905013952 | 29 | 61 | 6.4 | 8.0 | 0.00 | 0.13 | 0.13 | 80 | 1010.9 |
| 20260905013852 | 29 | 61 | 6.4 | 8.0 | 0.00 | 0.13 | 0.13 | 80 | 1010.8 |
| 20260905013749 | 29 | 63 | 6.4 | 8.0 | 0.00 | 0.13 | 0.13 | 80 | 1010.8 |
| 20260905013648 | 29 | 61 | 4.8 | 8.0 | 0.00 | 0.13 | 0.13 | 80 | 1010.8 |
| 20260905013546 | 29 | 61 | 3.2 | 6.4 | 0.00 | 0.13 | 0.13 | 80 | 1010.8 |
| 20260905013446 | 29 | 59 | 4.8 | 6.4 | 0.00 | 0.13 | 0.13 | 80 | 1010.8 |
| 20260905013344 | 29 | 58 | 4.8 | 6.4 | 0.00 | 0.13 | 0.13 | 80 | 1010.8 |
| 20260905013243 | 29 | 56 | 4.8 | 6.4 | 0.00 | 0.13 | 0.13 | 80 | 1010.8 |
| 20260905013140 | 29 | 54 | 3.2 | 6.4 | 0.00 | 0.13 | 0.13 | 80 | 1010.8 |
| 20260905013039 | 29 | 52 | 3.2 | 6.4 | 0.00 | 0.13 | 0.13 | 80 | 1010.7 |
| 20260905012937 | 29 | 54 | 1.6 | 6.4 | 0.00 | 0.13 | 0.13 | 80 | 1010.7 |
| 20260905012836 | 29 | 54 | 0.0 | 6.4 | 0.00 | 0.13 | 0.13 | 80 | 1010.8 |
| 20260905012734 | 29 | 54 | 0.0 | 6.4 | 0.00 | 0.13 | 0.13 | 80 | 1010.8 |
| 20260905012633 | 29 | 52 | 0.0 | 6.4 | 0.00 | 0.13 | 0.13 | 80 | 1010.7 |
| 20260905012531 | 29 | 51 | 3.2 | 6.4 | 0.00 | 0.13 | 0.13 | 80 | 1010.7 |
| 20260905012431 | 29 | 49 | 1.6 | 6.4 | 0.00 | 0.13 | 0.13 | 80 | 1010.7 |
| 20260905012332 | 29 | 49 | 0.0 | 4.8 | 0.00 | 0.13 | 0.13 | 79 | 1010.8 |
| 20260905012229 | 29 | 49 | 0.0 | 4.8 | 0.00 | 0.13 | 0.13 | 79 | 1010.7 |
| 20260905012129 | 29 | 49 | 1.6 | 4.8 | 0.00 | 0.13 | 0.13 | 79 | 1010.7 |
| 20260905012025 | 29 | 48 | 3.2 | 4.8 | 0.00 | 0.13 | 0.13 | 79 | 1010.7 |
| 20260905011921 | 29 | 82 | 1.6 | 4.8 | 0.00 | 0.13 | 0.13 | 79 | 1010.7 |
| 20260905011819 | 29 | 82 | 1.6 | 6.4 | 0.00 | 0.13 | 0.13 | 79 | 1010.6 |
| 20260905011717 | 30 | 79 | 1.6 | 6.4 | 0.00 | 0.13 | 0.13 | 79 | 1010.7 |
| 20260905011616 | 30 | 79 | 1.6 | 6.4 | 0.00 | 0.13 | 0.13 | 79 | 1010.6 |
| 20260905011516 | 30 | 79 | 1.6 | 6.4 | 0.00 | 0.13 | 0.13 | 79 | 1010.7 |
| 20260905011412 | 30 | 79 | 1.6 | 6.4 | 0.00 | 0.13 | 0.13 | 79 | 1010.6 |
| 20260905011312 | 30 | 79 | 3.2 | 6.4 | 0.00 | 0.13 | 0.13 | 79 | 1010.5 |
| 20260905011210 | 30 | 79 | 3.2 | 6.4 | 0.00 | 0.13 | 0.13 | 79 | 1010.5 |
| 20260905011109 | 30 | 79 | 3.2 | 6.4 | 0.00 | 0.13 | 0.13 | 78 | 1010.6 |
| 20260905011004 | 30 | 79 | 3.2 | 6.4 | 0.00 | 0.13 | 0.13 | 78 | 1010.5 |
| 20260905010902 | 30 | 73 | 1.6 | 6.4 | 0.00 | 0.13 | 0.13 | 78 | 1010.5 |
| 20260905010801 | 30 | 75 | 1.6 | 6.4 | 0.00 | 0.13 | 0.13 | 78 | 1010.5 |
| 20260905010702 | 30 | 76 | 3.2 | 6.4 | 0.00 | 0.13 | 0.13 | 78 | 1010.5 |
| 20260905010602 | 30 | 75 | 3.2 | 9.7 | 0.00 | 0.13 | 0.13 | 78 | 1010.4 |
| 20260905010502 | 30 | 72 | 4.8 | 9.7 | 0.00 | 0.13 | 0.13 | 78 | 1010.4 |
| 20260905010403 | 30 | 85 | 3.2 | 9.7 | 0.00 | 0.13 | 0.13 | 78 | 1010.4 |
| 20260905010303 | 30 | 85 | 4.8 | 9.7 | 0.00 | 0.13 | 0.13 | 78 | 1010.4 |
| 20260905010202 | 30 | 82 | 4.8 | 9.7 | 0.00 | 0.13 | 0.13 | 78 | 1010.4 |
| 20260905010004 | 30 | 92 | 4.8 | 9.7 | 0.00 | 0.13 | 0.13 | 78 | 1010.4 |
| 20260905005903 | 30 | 92 | 4.8 | 9.7 | 0.00 | 0.13 | 0.13 | 78 | 1010.4 |
| 20260905005802 | 30 | 92 | 6.4 | 9.7 | 0.00 | 0.13 | 0.13 | 78 | 1010.4 |
| 20260905005703 | 30 | 103 | 6.4 | 9.7 | 0.00 | 0.13 | 0.13 | 78 | 1010.4 |
| 20260905005602 | 30 | 106 | 6.4 | 8.0 | 0.00 | 0.13 | 0.13 | 78 | 1010.3 |
| 20260905005501 | 30 | 93 | 6.4 | 8.0 | 0.00 | 0.13 | 0.13 | 78 | 1010.4 |
| 20260905005401 | 30 | 90 | 6.4 | 8.0 | 0.00 | 0.13 | 0.13 | 78 | 1010.4 |
| 20260905005306 | 30 | 97 | 6.4 | 8.0 | 0.00 | 0.13 | 0.13 | 78 | 1010.4 |
| 20260905005201 | 30 | 103 | 6.4 | 8.0 | 0.00 | 0.13 | 0.13 | 78 | 1010.4 |
| 20260905005101 | 30 | 107 | 6.4 | 8.0 | 0.00 | 0.13 | 0.13 | 78 | 1010.4 |
| 20260905005003 | 30 | 106 | 6.4 | 8.0 | 0.00 | 0.13 | 0.13 | 78 | 1010.4 |
| 20260905004903 | 30 | 100 | 3.2 | 8.0 | 0.00 | 0.13 | 0.13 | 78 | 1010.4 |
| 20260905004802 | 30 | 100 | 3.2 | 8.0 | 0.00 | 0.13 | 0.13 | 78 | 1010.4 |
| 20260905004703 | 30 | 100 | 3.2 | 8.0 | 0.00 | 0.13 | 0.13 | 78 | 1010.4 |
| 20260905004602 | 30 | 100 | 3.2 | 8.0 | 0.00 | 0.13 | 0.13 | 78 | 1010.5 |
| 20260905004501 | 30 | 90 | 3.2 | 6.4 | 0.00 | 0.13 | 0.13 | 79 | 1010.5 |
| 20260905004401 | 30 | 133 | 3.2 | 6.4 | 0.00 | 0.13 | 0.13 | 79 | 1010.5 |
| 20260905004302 | 30 | 173 | 3.2 | 8.0 | 0.00 | 0.13 | 0.13 | 79 | 1010.5 |
| 20260905004201 | 30 | 80 | 3.2 | 8.0 | 0.00 | 0.13 | 0.13 | 78 | 1010.5 |
| 20260905004102 | 30 | 83 | 3.2 | 8.0 | 0.00 | 0.13 | 0.13 | 78 | 1010.4 |
| 20260905004001 | 30 | 83 | 3.2 | 8.0 | 0.00 | 0.13 | 0.13 | 78 | 1010.4 |
| 20260905003903 | 30 | 137 | 3.2 | 8.0 | 0.00 | 0.13 | 0.13 | 78 | 1010.4 |
| 20260905003801 | 30 | 124 | 3.2 | 8.0 | 0.00 | 0.13 | 0.13 | 78 | 1010.3 |
| 20260905003701 | 30 | 97 | 3.2 | 9.7 | 0.00 | 0.13 | 0.13 | 78 | 1010.4 |
| 20260905003602 | 30 | 79 | 3.2 | 11.3 | 0.00 | 0.13 | 0.13 | 78 | 1010.4 |
| 20260905003502 | 30 | 78 | 4.8 | 11.3 | 0.00 | 0.13 | 0.13 | 78 | 1010.3 |
| 20260905003403 | 30 | 78 | 4.8 | 11.3 | 0.00 | 0.13 | 0.13 | 78 | 1010.3 |
| 20260905003301 | 30 | 68 | 4.8 | 11.3 | 0.00 | 0.13 | 0.13 | 79 | 1010.3 |
| 20260905003203 | 30 | 114 | 4.8 | 11.3 | 0.00 | 0.13 | 0.13 | 79 | 1010.3 |
| 20260905003100 | 30 | 109 | 4.8 | 11.3 | 0.00 | 0.13 | 0.13 | 79 | 1010.2 |
| 20260905003002 | 30 | 111 | 6.4 | 11.3 | 0.00 | 0.13 | 0.13 | 79 | 1010.2 |
| 20260905002900 | 30 | 109 | 6.4 | 11.3 | 0.00 | 0.13 | 0.13 | 79 | 1010.1 |
| 20260905002801 | 30 | 116 | 8.0 | 11.3 | 0.00 | 0.13 | 0.13 | 79 | 1010.0 |
| 20260905002701 | 30 | 109 | 8.0 | 11.3 | 0.00 | 0.13 | 0.13 | 80 | 1010.0 |
| 20260905002600 | 30 | 124 | 6.4 | 9.7 | 0.00 | 0.13 | 0.13 | 80 | 1010.0 |
| 20260905002502 | 30 | 97 | 6.4 | 9.7 | 0.00 | 0.13 | 0.13 | 81 | 1010.0 |
| 20260905002400 | 30 | 106 | 6.4 | 9.7 | 0.00 | 0.13 | 0.13 | 81 | 1009.9 |
| 20260905002259 | 30 | 90 | 4.8 | 8.0 | 0.00 | 0.13 | 0.13 | 82 | 1009.9 |
| 20260905002202 | 30 | 75 | 4.8 | 6.4 | 0.00 | 0.13 | 0.13 | 82 | 1009.9 |
| 20260905002101 | 30 | 45 | 4.8 | 6.4 | 0.00 | 0.13 | 0.13 | 82 | 1009.9 |
| 20260905002000 | 30 | 45 | 4.8 | 6.4 | 0.00 | 0.13 | 0.13 | 82 | 1009.9 |
| 20260905001901 | 30 | 45 | 4.8 | 6.4 | 0.00 | 0.13 | 0.13 | 82 | 1009.9 |
| 20260905001802 | 30 | 45 | 4.8 | 8.0 | 0.00 | 0.13 | 0.13 | 82 | 1009.9 |
| 20260905001700 | 30 | 44 | 4.8 | 8.0 | 0.00 | 0.13 | 0.13 | 82 | 1009.9 |
| 20260905001601 | 30 | 44 | 4.8 | 8.0 | 0.00 | 0.13 | 0.13 | 83 | 1009.9 |
| 20260905001502 | 30 | 42 | 4.8 | 8.0 | 0.00 | 0.13 | 0.13 | 83 | 1009.9 |
| 20260905001400 | 30 | 42 | 4.8 | 8.0 | 0.00 | 0.13 | 0.13 | 83 | 1009.9 |
| 20260905001300 | 30 | 42 | 3.2 | 8.0 | 0.00 | 0.13 | 0.13 | 83 | 1010.0 |
| 20260905001200 | 30 | 42 | 3.2 | 8.0 | 0.00 | 0.13 | 0.13 | 83 | 1010.0 |
| 20260905001101 | 30 | 42 | 4.8 | 8.0 | 0.00 | 0.13 | 0.13 | 83 | 1010.1 |
| 20260905001001 | 30 | 42 | 6.4 | 8.0 | 0.00 | 0.13 | 0.13 | 82 | 1010.0 |
| 20260905000901 | 30 | 41 | 6.4 | 8.0 | 0.00 | 0.13 | 0.13 | 82 | 1010.0 |
| 20260905000802 | 30 | 35 | 4.8 | 6.4 | 0.00 | 0.13 | 0.13 | 83 | 1010.0 |
| 20260905000701 | 30 | 24 | 4.8 | 6.4 | 0.00 | 0.13 | 0.13 | 83 | 1010.0 |
| 20260905000602 | 30 | 0 | 4.8 | 6.4 | 0.00 | 0.13 | 0.13 | 83 | 1010.0 |
| 20260905000500 | 30 | 0 | 3.2 | 4.8 | 0.00 | 0.13 | 0.13 | 83 | 1010.0 |
| 20260905000402 | 30 | 0 | 3.2 | 4.8 | 0.00 | 0.13 | 0.13 | 84 | 1010.1 |
| 20260905000303 | 30 | 0 | 3.2 | 4.8 | 0.00 | 0.13 | 0.13 | 84 | 1010.0 |
| 20260905000200 | 30 | 0 | 1.6 | 4.8 | 0.00 | 0.13 | 0.13 | 85 | 1010.1 |
| 20260905000001 | 30 | 0 | 3.2 | 4.8 | 0.00 | 0.13 | 0.13 | 85 | 1010.1 |
| 20260904235901 | 30 | 0 | 1.6 | 4.8 | 0.00 | 0.13 | 0.13 | 84 | 1010.1 |
| 20260904235802 | 30 | 0 | 1.6 | 4.8 | 0.00 | 0.13 | 0.13 | 84 | 1010.1 |
| 20260904235701 | 30 | 0 | 1.6 | 4.8 | 0.00 | 0.13 | 0.13 | 84 | 1010.1 |
| 20260904235559 | 30 | 0 | 3.2 | 4.8 | 0.00 | 0.13 | 0.13 | 84 | 1010.0 |
| 20260904235500 | 30 | 0 | 3.2 | 4.8 | 0.00 | 0.13 | 0.13 | 84 | 1010.1 |
| 20260904235401 | 30 | 0 | 3.2 | 4.8 | 0.00 | 0.13 | 0.13 | 84 | 1010.1 |
| 20260904235259 | 30 | 0 | 3.2 | 4.8 | 0.00 | 0.13 | 0.13 | 84 | 1010.1 |
| 20260904235201 | 30 | 0 | 3.2 | 4.8 | 0.00 | 0.13 | 0.13 | 84 | 1010.1 |
| 20260904235102 | 30 | 0 | 3.2 | 4.8 | 0.00 | 0.13 | 0.13 | 84 | 1010.0 |
| 20260904235000 | 30 | 0 | 3.2 | 4.8 | 0.00 | 0.13 | 0.13 | 84 | 1010.0 |
| 20260904234859 | 30 | 0 | 3.2 | 4.8 | 0.00 | 0.13 | 0.13 | 84 | 1010.0 |
| 20260904234800 | 30 | 0 | 3.2 | 4.8 | 0.00 | 0.13 | 0.13 | 84 | 1010.0 |
| 20260904234701 | 30 | 0 | 3.2 | 4.8 | 0.00 | 0.13 | 0.13 | 83 | 1009.9 |
| 20260904234601 | 30 | 0 | 3.2 | 4.8 | 0.00 | 0.13 | 0.13 | 83 | 1009.9 |
| 20260904234459 | 30 | 0 | 3.2 | 4.8 | 0.00 | 0.13 | 0.13 | 83 | 1009.9 |
| 20260904234400 | 30 | 0 | 3.2 | 4.8 | 0.00 | 0.13 | 0.13 | 82 | 1009.9 |
| 20260904234259 | 30 | 0 | 3.2 | 4.8 | 0.00 | 0.13 | 0.13 | 82 | 1010.0 |
| 20260904234159 | 30 | 0 | 3.2 | 4.8 | 0.00 | 0.13 | 0.13 | 82 | 1010.0 |
| 20260904234100 | 30 | 0 | 3.2 | 4.8 | 0.00 | 0.13 | 0.13 | 83 | 1010.0 |
| 20260904234001 | 30 | 0 | 3.2 | 4.8 | 0.00 | 0.13 | 0.13 | 82 | 1010.1 |
| 20260904233900 | 30 | 0 | 3.2 | 4.8 | 0.00 | 0.13 | 0.13 | 83 | 1010.1 |
| 20260904233800 | 30 | 0 | 3.2 | 4.8 | 0.00 | 0.13 | 0.13 | 83 | 1010.1 |
| 20260904233659 | 30 | 0 | 3.2 | 4.8 | 0.00 | 0.13 | 0.13 | 83 | 1010.1 |
| 20260904233600 | 30 | 0 | 3.2 | 4.8 | 0.00 | 0.13 | 0.13 | 82 | 1010.1 |
| 20260904233500 | 30 | 0 | 3.2 | 6.4 | 0.00 | 0.13 | 0.13 | 81 | 1010.2 |
| 20260904233400 | 30 | 0 | 3.2 | 6.4 | 0.00 | 0.13 | 0.13 | 81 | 1010.1 |
| 20260904233300 | 30 | 0 | 3.2 | 6.4 | 0.00 | 0.13 | 0.13 | 80 | 1010.1 |
| 20260904233200 | 30 | 0 | 3.2 | 6.4 | 0.00 | 0.13 | 0.13 | 80 | 1010.1 |
| 20260904233100 | 30 | 0 | 3.2 | 6.4 | 0.00 | 0.13 | 0.13 | 80 | 1010.2 |
| 20260904233000 | 30 | 0 | 3.2 | 6.4 | 0.00 | 0.13 | 0.13 | 81 | 1010.2 |
| 20260904232900 | 30 | 0 | 3.2 | 6.4 | 0.00 | 0.13 | 0.13 | 80 | 1010.1 |
| 20260904232800 | 30 | 0 | 3.2 | 6.4 | 0.00 | 0.13 | 0.13 | 80 | 1010.2 |
| 20260904232700 | 30 | 0 | 3.2 | 6.4 | 0.00 | 0.13 | 0.13 | 81 | 1010.2 |
| 20260904232559 | 30 | 0 | 4.8 | 6.4 | 0.00 | 0.13 | 0.13 | 81 | 1010.2 |
| 20260904232500 | 30 | 0 | 3.2 | 6.4 | 0.00 | 0.13 | 0.13 | 82 | 1010.2 |
| 20260904232400 | 30 | 0 | 3.2 | 6.4 | 0.00 | 0.13 | 0.13 | 81 | 1010.2 |
| 20260904232300 | 30 | 0 | 3.2 | 6.4 | 0.00 | 0.13 | 0.13 | 81 | 1010.3 |
| 20260904232159 | 30 | 358 | 3.2 | 6.4 | 0.00 | 0.13 | 0.13 | 81 | 1010.2 |
| 20260904232059 | 30 | 358 | 4.8 | 6.4 | 0.00 | 0.13 | 0.13 | 80 | 1010.2 |
| 20260904231959 | 30 | 357 | 4.8 | 6.4 | 0.00 | 0.13 | 0.13 | 80 | 1010.2 |
| 20260904231901 | 30 | 357 | 3.2 | 6.4 | 0.00 | 0.13 | 0.13 | 80 | 1010.3 |
| 20260904231800 | 30 | 355 | 3.2 | 6.4 | 0.00 | 0.13 | 0.13 | 81 | 1010.3 |
| 20260904231659 | 30 | 331 | 3.2 | 6.4 | 0.00 | 0.13 | 0.13 | 81 | 1010.3 |
| 20260904231601 | 30 | 330 | 3.2 | 6.4 | 0.00 | 0.13 | 0.13 | 81 | 1010.2 |
| 20260904231459 | 30 | 329 | 3.2 | 6.4 | 0.00 | 0.13 | 0.13 | 80 | 1010.2 |
| 20260904231400 | 30 | 329 | 3.2 | 8.0 | 0.00 | 0.13 | 0.13 | 80 | 1010.2 |
| 20260904231300 | 30 | 329 | 3.2 | 8.0 | 0.00 | 0.13 | 0.13 | 80 | 1010.2 |
| 20260904231202 | 30 | 324 | 3.2 | 8.0 | 0.00 | 0.13 | 0.13 | 80 | 1010.2 |
| 20260904231058 | 30 | 324 | 4.8 | 8.0 | 0.00 | 0.13 | 0.13 | 79 | 1010.2 |
| 20260904230959 | 30 | 324 | 3.2 | 8.0 | 0.00 | 0.13 | 0.13 | 80 | 1010.2 |
| 20260904230900 | 30 | 324 | 3.2 | 8.0 | 0.00 | 0.13 | 0.13 | 80 | 1010.2 |
| 20260904230759 | 30 | 324 | 4.8 | 8.0 | 0.00 | 0.13 | 0.13 | 81 | 1010.1 |
| 20260904230700 | 30 | 324 | 4.8 | 8.0 | 0.00 | 0.13 | 0.13 | 80 | 1010.1 |
| 20260904230601 | 30 | 323 | 6.4 | 8.0 | 0.00 | 0.13 | 0.13 | 80 | 1010.2 |
| 20260904230501 | 30 | 323 | 6.4 | 8.0 | 0.00 | 0.13 | 0.13 | 81 | 1010.1 |
| 20260904230359 | 30 | 330 | 4.8 | 8.0 | 0.00 | 0.13 | 0.13 | 82 | 1010.1 |
| 20260904230259 | 30 | 330 | 4.8 | 8.0 | 0.00 | 0.13 | 0.13 | 82 | 1010.1 |
| 20260904230159 | 30 | 330 | 4.8 | 8.0 | 0.00 | 0.13 | 0.13 | 82 | 1010.2 |
| 20260904230100 | 30 | 334 | 3.2 | 6.4 | 0.00 | 0.13 | 0.13 | 82 | 1010.2 |
| 20260904225958 | 30 | 334 | 3.2 | 6.4 | 0.00 | 0.13 | 0.00 | 82 | 1010.1 |
| 20260904225859 | 30 | 334 | 4.8 | 6.4 | 0.00 | 0.13 | 0.00 | 82 | 1010.2 |
| 20260904225800 | 30 | 334 | 4.8 | 6.4 | 0.00 | 0.13 | 0.00 | 82 | 1010.2 |
| 20260904225659 | 30 | 334 | 4.8 | 6.4 | 0.00 | 0.13 | 0.00 | 84 | 1010.2 |
| 20260904225600 | 30 | 334 | 3.2 | 6.4 | 0.00 | 0.13 | 0.00 | 84 | 1010.1 |
| 20260904225459 | 30 | 334 | 3.2 | 6.4 | 0.00 | 0.13 | 0.00 | 84 | 1010.2 |
| 20260904225359 | 30 | 334 | 3.2 | 6.4 | 0.00 | 0.13 | 0.00 | 84 | 1010.1 |
| 20260904225300 | 30 | 334 | 3.2 | 6.4 | 0.00 | 0.13 | 0.00 | 84 | 1010.1 |
| 20260904225158 | 30 | 334 | 3.2 | 4.8 | 0.00 | 0.13 | 0.00 | 84 | 1010.2 |
| 20260904225058 | 30 | 334 | 3.2 | 4.8 | 0.00 | 0.13 | 0.00 | 84 | 1010.1 |
| 20260904224959 | 30 | 334 | 3.2 | 4.8 | 0.00 | 0.13 | 0.00 | 84 | 1010.1 |
| 20260904224859 | 30 | 334 | 3.2 | 6.4 | 0.00 | 0.13 | 0.00 | 84 | 1010.1 |
| 20260904224759 | 30 | 334 | 3.2 | 6.4 | 0.00 | 0.13 | 0.00 | 83 | 1010.1 |
| 20260904224659 | 30 | 334 | 3.2 | 6.4 | 0.00 | 0.13 | 0.00 | 84 | 1010.1 |
| 20260904224600 | 30 | 334 | 3.2 | 6.4 | 0.00 | 0.13 | 0.00 | 84 | 1010.1 |
| 20260904224500 | 30 | 334 | 3.2 | 6.4 | 0.00 | 0.13 | 0.00 | 84 | 1010.1 |
| 20260904224358 | 30 | 334 | 3.2 | 6.4 | 0.00 | 0.13 | 0.00 | 84 | 1010.1 |
| 20260904224258 | 29 | 334 | 3.2 | 6.4 | 0.00 | 0.13 | 0.00 | 84 | 1010.1 |
| 20260904224158 | 29 | 334 | 3.2 | 6.4 | 0.00 | 0.13 | 0.00 | 84 | 1010.1 |
| 20260904224058 | 29 | 334 | 4.8 | 6.4 | 0.00 | 0.13 | 0.00 | 83 | 1010.2 |
| 20260904223959 | 29 | 334 | 3.2 | 6.4 | 0.03 | 0.13 | 0.00 | 83 | 1010.2 |
| 20260904223900 | 29 | 334 | 3.2 | 8.0 | 0.03 | 0.13 | 0.00 | 85 | 1010.2 |
| 20260904223800 | 29 | 334 | 3.2 | 8.0 | 0.08 | 0.13 | 0.00 | 85 | 1010.2 |
| 20260904223657 | 29 | 334 | 3.2 | 8.0 | 0.10 | 0.13 | 0.00 | 87 | 1010.1 |
| 20260904223559 | 28 | 331 | 3.2 | 8.0 | 0.13 | 0.13 | 0.00 | 86 | 1010.2 |
| 20260904223500 | 28 | 331 | 3.2 | 8.0 | 0.13 | 0.13 | 0.00 | 86 | 1010.2 |
| 20260904223359 | 28 | 331 | 3.2 | 8.0 | 0.13 | 0.13 | 0.00 | 86 | 1010.1 |
| 20260904223232 | 28 | 331 | 4.8 | 8.0 | 0.13 | 0.13 | 0.00 | 86 | 1010.1 |
| 20260904223125 | 28 | 331 | 4.8 | 9.7 | 0.13 | 0.13 | 0.00 | 87 | 1010.2 |
| 20260904223021 | 28 | 330 | 4.8 | 9.7 | 0.13 | 0.13 | 0.00 | 88 | 1010.1 |
| 20260904222918 | 28 | 330 | 3.2 | 9.7 | 0.13 | 0.13 | 0.00 | 88 | 1010.1 |
| 20260904222818 | 28 | 316 | 3.2 | 9.7 | 0.13 | 0.13 | 0.00 | 88 | 1010.2 |
| 20260904222715 | 28 | 316 | 4.8 | 9.7 | 0.13 | 0.13 | 0.00 | 89 | 1010.2 |
| 20260904222612 | 28 | 316 | 6.4 | 9.7 | 0.13 | 0.13 | 0.00 | 89 | 1010.2 |
| 20260904222510 | 27 | 316 | 4.8 | 9.7 | 0.13 | 0.13 | 0.00 | 89 | 1010.3 |
| 20260904222406 | 27 | 314 | 6.4 | 9.7 | 0.13 | 0.13 | 0.00 | 89 | 1010.2 |
| 20260904222306 | 27 | 314 | 8.0 | 9.7 | 0.13 | 0.13 | 0.00 | 89 | 1010.3 |
| 20260904222203 | 27 | 299 | 6.4 | 8.0 | 0.13 | 0.13 | 0.00 | 91 | 1010.3 |
| 20260904222104 | 27 | 334 | 4.8 | 8.0 | 0.13 | 0.13 | 0.00 | 91 | 1010.4 |
| 20260904222003 | 27 | 334 | 4.8 | 8.0 | 0.13 | 0.13 | 0.00 | 91 | 1010.3 |
| 20260904221904 | 27 | 341 | 3.2 | 8.0 | 0.13 | 0.13 | 0.00 | 91 | 1010.3 |
| 20260904221801 | 27 | 341 | 3.2 | 8.0 | 0.13 | 0.13 | 0.00 | 91 | 1010.3 |
| 20260904221703 | 27 | 341 | 3.2 | 8.0 | 0.13 | 0.13 | 0.00 | 91 | 1010.3 |
| 20260904221603 | 27 | 341 | 3.2 | 8.0 | 0.13 | 0.13 | 0.00 | 91 | 1010.3 |
| 20260904221503 | 27 | 341 | 3.2 | 8.0 | 0.13 | 0.13 | 0.00 | 90 | 1010.3 |
| 20260904221402 | 27 | 340 | 3.2 | 8.0 | 0.13 | 0.13 | 0.00 | 92 | 1010.3 |
| 20260904221304 | 27 | 340 | 4.8 | 8.0 | 0.13 | 0.13 | 0.00 | 91 | 1010.4 |
| 20260904221203 | 27 | 340 | 3.2 | 8.0 | 0.13 | 0.13 | 0.00 | 91 | 1010.4 |
| 20260904221102 | 27 | 340 | 3.2 | 8.0 | 0.13 | 0.13 | 0.00 | 91 | 1010.3 |
| 20260904221003 | 27 | 340 | 3.2 | 8.0 | 0.13 | 0.13 | 0.00 | 91 | 1010.4 |
| 20260904220904 | 27 | 338 | 4.8 | 11.3 | 0.13 | 0.13 | 0.00 | 91 | 1010.4 |
| 20260904220803 | 27 | 338 | 4.8 | 11.3 | 0.13 | 0.13 | 0.00 | 91 | 1010.4 |
| 20260904220704 | 27 | 337 | 4.8 | 11.3 | 0.13 | 0.13 | 0.00 | 90 | 1010.5 |
| 20260904220603 | 27 | 337 | 6.4 | 11.3 | 0.13 | 0.13 | 0.00 | 89 | 1010.5 |
| 20260904220502 | 27 | 321 | 6.4 | 11.3 | 0.13 | 0.13 | 0.00 | 90 | 1010.5 |
| 20260904220403 | 27 | 299 | 9.7 | 11.3 | 0.13 | 0.13 | 0.13 | 91 | 1010.6 |
| 20260904220304 | 27 | 299 | 9.7 | 11.3 | 0.13 | 0.13 | 0.13 | 91 | 1010.6 |
| 20260904220201 | 27 | 299 | 9.7 | 11.3 | 0.13 | 0.13 | 0.13 | 91 | 1010.5 |
| 20260904220058 | 27 | 299 | 9.7 | 11.3 | 0.13 | 0.13 | 0.13 | 91 | 1010.6 |
| 20260904215957 | 27 | 299 | 9.7 | 11.3 | 0.00 | 0.00 | 0.13 | 92 | 1010.5 |
| 20260904215858 | 27 | 303 | 8.0 | 9.7 | 0.00 | 0.00 | 0.13 | 92 | 1010.5 |
| 20260904215757 | 27 | 309 | 4.8 | 8.0 | 0.00 | 0.00 | 0.13 | 91 | 1010.6 |
| 20260904215658 | 27 | 323 | 3.2 | 6.4 | 0.00 | 0.00 | 0.13 | 91 | 1010.5 |
| 20260904215600 | 27 | 323 | 3.2 | 6.4 | 0.00 | 0.00 | 0.13 | 91 | 1010.5 |
| 20260904215458 | 27 | 323 | 0.0 | 6.4 | 0.00 | 0.00 | 0.13 | 91 | 1010.6 |
| 20260904215358 | 27 | 323 | 0.0 | 6.4 | 0.00 | 0.00 | 0.13 | 91 | 1010.6 |
| 20260904215259 | 27 | 323 | 0.0 | 6.4 | 0.00 | 0.00 | 0.13 | 92 | 1010.6 |
| 20260904215159 | 27 | 323 | 1.6 | 6.4 | 0.00 | 0.00 | 0.13 | 92 | 1010.6 |
| 20260904215057 | 27 | 323 | 3.2 | 6.4 | 0.00 | 0.00 | 0.13 | 91 | 1010.6 |
| 20260904214957 | 27 | 323 | 3.2 | 6.4 | 0.00 | 0.00 | 0.13 | 90 | 1010.5 |
| 20260904214857 | 27 | 320 | 3.2 | 6.4 | 0.00 | 0.00 | 0.13 | 90 | 1010.6 |
| 20260904214758 | 27 | 317 | 3.2 | 6.4 | 0.00 | 0.00 | 0.13 | 90 | 1010.6 |
| 20260904214659 | 27 | 317 | 1.6 | 6.4 | 0.00 | 0.00 | 0.13 | 89 | 1010.7 |
| 20260904214558 | 27 | 317 | 1.6 | 6.4 | 0.00 | 0.00 | 0.13 | 90 | 1010.8 |
| 20260904214457 | 27 | 317 | 3.2 | 6.4 | 0.00 | 0.00 | 0.13 | 90 | 1010.7 |
| 20260904214358 | 27 | 317 | 3.2 | 6.4 | 0.00 | 0.00 | 0.13 | 89 | 1010.7 |
| 20260904214256 | 27 | 317 | 3.2 | 6.4 | 0.00 | 0.00 | 0.13 | 89 | 1010.8 |
| 20260904214159 | 27 | 317 | 4.8 | 6.4 | 0.00 | 0.00 | 0.13 | 88 | 1010.8 |
| 20260904214057 | 27 | 317 | 6.4 | 6.4 | 0.00 | 0.00 | 0.10 | 88 | 1010.7 |
| 20260904213957 | 27 | 317 | 4.8 | 6.4 | 0.00 | 0.00 | 0.10 | 88 | 1010.7 |
| 20260904213859 | 27 | 317 | 3.2 | 4.8 | 0.00 | 0.00 | 0.05 | 87 | 1010.7 |
| 20260904213756 | 27 | 317 | 3.2 | 4.8 | 0.00 | 0.00 | 0.03 | 86 | 1010.7 |
| 20260904213657 | 27 | 317 | 3.2 | 4.8 | 0.00 | 0.00 | 0.00 | 86 | 1010.6 |
| 20260904213558 | 27 | 317 | 3.2 | 4.8 | 0.00 | 0.00 | 0.00 | 85 | 1010.6 |
| 20260904213457 | 27 | 317 | 3.2 | 4.8 | 0.00 | 0.00 | 0.00 | 85 | 1010.6 |
| 20260904213357 | 27 | 316 | 3.2 | 0.0 | 0.00 | 0.00 | 0.00 | 85 | 1010.6 |
| 20260904213257 | -17 | 0.0 | 0.0 | 0.00 | 0.00 | 0.00 | 1010.6 | ||
| 20260904212732 | 30 | 104 | 14.5 | 20.9 | 0.08 | 0.00 | 0.08 | 78 | 1011.0 |
| 20260904212632 | 30 | 104 | 14.5 | 20.9 | 0.08 | 0.00 | 0.08 | 78 | 1011.1 |
| 20260904212532 | 30 | 104 | 14.5 | 20.9 | 0.08 | 0.00 | 0.08 | 78 | 1011.1 |
| 20260904212432 | 30 | 104 | 14.5 | 20.9 | 0.08 | 0.00 | 0.08 | 78 | 1011.0 |
| 20260904212332 | 30 | 104 | 14.5 | 20.9 | 0.08 | 0.00 | 0.08 | 78 | 1010.9 |
| 20260904212232 | 30 | 89 | 16.1 | 20.9 | 0.03 | 0.00 | 0.03 | 78 | 1010.9 |
| 20260904212132 | 30 | 96 | 16.1 | 20.9 | 0.03 | 0.00 | 0.00 | 77 | 1010.7 |
| 20260904212031 | 30 | 83 | 14.5 | 24.1 | 0.00 | 0.00 | 0.00 | 77 | 1010.7 |
| 20260904211932 | 30 | 93 | 16.1 | 24.1 | 0.00 | 0.00 | 0.00 | 76 | 1010.6 |
| 20260904211831 | 31 | 102 | 16.1 | 24.1 | 0.00 | 0.00 | 0.00 | 76 | 1010.6 |
| 20260904211732 | 31 | 96 | 12.9 | 24.1 | 0.00 | 0.00 | 0.00 | 76 | 1010.6 |
| 20260904211631 | 31 | 63 | 12.9 | 24.1 | 0.00 | 0.00 | 0.00 | 75 | 1010.5 |
| 20260904211531 | 31 | 114 | 14.5 | 24.1 | 0.00 | 0.00 | 0.00 | 74 | 1010.6 |
| 20260904211432 | 31 | 117 | 12.9 | 24.1 | 0.00 | 0.00 | 0.00 | 74 | 1010.6 |
| 20260904211332 | 31 | 76 | 14.5 | 24.1 | 0.00 | 0.00 | 0.00 | 73 | 1010.6 |
| 20260904211231 | 31 | 99 | 17.7 | 24.1 | 0.00 | 0.00 | 0.00 | 73 | 1010.7 |
| 20260904211131 | 31 | 73 | 17.7 | 24.1 | 0.00 | 0.00 | 0.00 | 72 | 1010.7 |
| 20260904211031 | 31 | 114 | 14.5 | 20.9 | 0.00 | 0.00 | 0.00 | 72 | 1010.6 |
| 20260904210931 | 31 | 102 | 11.3 | 17.7 | 0.00 | 0.00 | 0.00 | 72 | 1010.7 |
| 20260904210831 | 31 | 121 | 8.0 | 17.7 | 0.00 | 0.00 | 0.00 | 72 | 1010.7 |
| 20260904210731 | 31 | 52 | 4.8 | 8.0 | 0.00 | 0.00 | 0.00 | 72 | 1010.6 |
| 20260904210631 | 31 | 0 | 3.2 | 6.4 | 0.00 | 0.00 | 0.00 | 72 | 1010.5 |
| 20260904210531 | 32 | 0 | 3.2 | 6.4 | 0.00 | 0.00 | 0.00 | 73 | 1010.5 |
| 20260904210433 | 32 | 0 | 3.2 | 8.0 | 0.00 | 0.00 | 0.00 | 72 | 1010.5 |
| 20260904210333 | 32 | 0 | 3.2 | 8.0 | 0.00 | 0.00 | 0.00 | 72 | 1010.4 |
| 20260904210231 | 32 | 0 | 4.8 | 8.0 | 0.00 | 0.00 | 0.00 | 72 | 1010.4 |
| 20260904210131 | 32 | 0 | 4.8 | 8.0 | 0.00 | 0.00 | 0.00 | 72 | 1010.5 |
| 20260904210033 | 32 | 0 | 4.8 | 8.0 | 0.00 | 0.00 | 0.00 | 72 | 1010.5 |
| 20260904205930 | 32 | 0 | 4.8 | 8.0 | 0.00 | 0.00 | 0.00 | 72 | 1010.6 |
| 20260904205830 | 32 | 0 | 4.8 | 8.0 | 0.00 | 0.00 | 0.00 | 72 | 1010.6 |
| 20260904205732 | 32 | 0 | 4.8 | 8.0 | 0.00 | 0.00 | 0.00 | 72 | 1010.6 |
| 20260904205633 | 32 | 8 | 4.8 | 8.0 | 0.00 | 0.00 | 0.00 | 72 | 1010.7 |
| 20260904205531 | 32 | 8 | 3.2 | 8.0 | 0.00 | 0.00 | 0.00 | 72 | 1010.8 |
| 20260904205431 | 32 | 0 | 3.2 | 6.4 | 0.00 | 0.00 | 0.00 | 71 | 1010.6 |
| 20260904205333 | 32 | 0 | 3.2 | 6.4 | 0.00 | 0.00 | 0.00 | 71 | 1010.7 |
| 20260904205231 | 32 | 0 | 3.2 | 6.4 | 0.00 | 0.00 | 0.00 | 70 | 1010.7 |
| 20260904205132 | 32 | 0 | 4.8 | 6.4 | 0.00 | 0.00 | 0.00 | 71 | 1010.7 |
| 20260904205032 | 32 | 0 | 4.8 | 6.4 | 0.00 | 0.00 | 0.00 | 71 | 1010.7 |
| 20260904204932 | 32 | 0 | 4.8 | 6.4 | 0.00 | 0.00 | 0.00 | 71 | 1010.7 |
| 20260904204831 | 32 | 0 | 4.8 | 6.4 | 0.00 | 0.00 | 0.00 | 71 | 1010.8 |
| 20260904204731 | 32 | 316 | 4.8 | 6.4 | 0.00 | 0.00 | 0.00 | 70 | 1010.8 |
| 20260904204632 | 32 | 316 | 3.2 | 6.4 | 0.00 | 0.00 | 0.00 | 70 | 1010.7 |
| 20260904204532 | 32 | 316 | 3.2 | 6.4 | 0.00 | 0.00 | 0.00 | 70 | 1010.7 |
| 20260904204431 | 32 | 316 | 4.8 | 6.4 | 0.00 | 0.00 | 0.00 | 71 | 1010.8 |
| 20260904204330 | 32 | 314 | 4.8 | 6.4 | 0.00 | 0.00 | 0.00 | 71 | 1010.9 |
| 20260904204227 | 32 | 314 | 3.2 | 6.4 | 0.00 | 0.00 | 0.00 | 71 | 1010.8 |
| 20260904204125 | 32 | 314 | 1.6 | 6.4 | 0.00 | 0.00 | 0.00 | 71 | 1010.9 |
| 20260904204025 | 32 | 314 | 1.6 | 6.4 | 0.00 | 0.00 | 0.00 | 71 | 1010.9 |
| 20260904203924 | 32 | 314 | 4.8 | 6.4 | 0.00 | 0.00 | 0.00 | 71 | 1010.8 |
| 20260904203824 | 32 | 314 | 4.8 | 6.4 | 0.00 | 0.00 | 0.00 | 71 | 1010.9 |
| 20260904203723 | 32 | 314 | 4.8 | 6.4 | 0.00 | 0.00 | 0.00 | 71 | 1010.9 |
| 20260904203622 | 32 | 345 | 3.2 | 6.4 | 0.00 | 0.00 | 0.00 | 71 | 1011.0 |
| 20260904203521 | 32 | 0 | 3.2 | 4.8 | 0.00 | 0.00 | 0.00 | 70 | 1010.9 |
| 20260904203419 | 32 | 1 | 3.2 | 4.8 | 0.00 | 0.00 | 0.00 | 69 | 1010.9 |
| 20260904203317 | 32 | 0 | 3.2 | 4.8 | 0.00 | 0.00 | 0.00 | 69 | 1010.9 |
| 20260904203216 | 32 | 0 | 3.2 | 4.8 | 0.00 | 0.00 | 0.00 | 69 | 1010.9 |
| 20260904203110 | 33 | 0 | 1.6 | 6.4 | 0.00 | 0.00 | 0.00 | 70 | 1010.9 |
| 20260904203010 | 32 | 0 | 1.6 | 6.4 | 0.00 | 0.00 | 0.00 | 69 | 1011.0 |
| 20260904202909 | 32 | 0 | 1.6 | 8.0 | 0.00 | 0.00 | 0.00 | 69 | 1011.0 |
| 20260904202807 | 32 | 0 | 1.6 | 8.0 | 0.00 | 0.00 | 0.00 | 68 | 1011.0 |
| 20260904202705 | 32 | 49 | 3.2 | 8.0 | 0.00 | 0.00 | 0.00 | 68 | 1011.0 |
| 20260904202602 | 32 | 49 | 1.6 | 8.0 | 0.00 | 0.00 | 0.00 | 69 | 1011.1 |
| 20260904202503 | 32 | 127 | 0.0 | 8.0 | 0.00 | 0.00 | 0.00 | 68 | 1011.1 |
| 20260904202403 | 32 | 141 | 1.6 | 9.7 | 0.00 | 0.00 | 0.00 | 67 | 1011.1 |
| 20260904202305 | 32 | 141 | 3.2 | 9.7 | 0.00 | 0.00 | 0.00 | 67 | 1011.2 |
| 20260904202202 | 33 | 141 | 4.8 | 9.7 | 0.00 | 0.00 | 0.00 | 67 | 1011.1 |